Wetterdaten: Freitag, 22.11.2019
Datum Zeit Temp. Aussen Temp. o. S. Temp +5cm Feuchte Auss Luftdruck Regen Sonnenschein Regendauer Solar Windben Empfang
22.11.2019 00:00 4,4 C 3,9 C 3,3 C 96 % 1006,7 hPa 0,0 l/m 0 min 0 min 0 W/m 16,1 km/h (3 Bft) 100,00 %
22.11.2019 00:02 4,4 C 3,9 C 3,3 C 96 % 1006,6 hPa 0,0 l/m 0 min 0 min 0 W/m 12,9 km/h (3 Bft) 95,12 %
22.11.2019 00:04 4,4 C 3,9 C 3,3 C 96 % 1006,6 hPa 0,0 l/m 0 min 0 min 0 W/m 12,9 km/h (3 Bft) 100,00 %
22.11.2019 00:08 4,4 C 3,9 C 3,3 C 96 % 1006,5 hPa 0,0 l/m 0 min 0 min 0 W/m 19,3 km/h (3 Bft) 97,87 %
22.11.2019 00:10 4,5 C 3,9 C 3,3 C 96 % 1006,5 hPa 0,0 l/m 0 min 0 min 0 W/m 16,1 km/h (3 Bft) 97,87 %
22.11.2019 00:12 4,5 C 3,9 C 3,3 C 96 % 1006,5 hPa 0,0 l/m 0 min 0 min 0 W/m 6,4 km/h (2 Bft) 97,83 %
22.11.2019 00:14 4,5 C 3,9 C 3,3 C 96 % 1006,5 hPa 0,0 l/m 0 min 0 min 0 W/m 12,9 km/h (3 Bft) 97,87 %
22.11.2019 00:16 4,5 C 3,9 C 3,3 C 96 % 1006,6 hPa 0,0 l/m 0 min 0 min 0 W/m 12,9 km/h (3 Bft) 95,74 %
22.11.2019 00:18 4,5 C 3,9 C 3,3 C 96 % 1006,5 hPa 0,0 l/m 0 min 0 min 0 W/m 6,4 km/h (2 Bft) 97,87 %
22.11.2019 00:20 4,6 C 3,9 C 3,3 C 96 % 1006,5 hPa 0,0 l/m 0 min 0 min 0 W/m 9,7 km/h (2 Bft) 95,74 %
22.11.2019 00:22 4,6 C 3,9 C 3,3 C 96 % 1006,5 hPa 0,0 l/m 0 min 0 min 0 W/m 12,9 km/h (3 Bft) 97,83 %
22.11.2019 00:24 4,6 C 3,9 C 3,3 C 96 % 1006,4 hPa 0,0 l/m 0 min 0 min 0 W/m 12,9 km/h (3 Bft) 97,87 %
22.11.2019 00:26 4,6 C 3,9 C 3,3 C 96 % 1006,4 hPa 0,0 l/m 0 min 0 min 0 W/m 12,9 km/h (3 Bft) 97,87 %
22.11.2019 00:28 4,6 C 3,9 C 3,3 C 96 % 1006,4 hPa 0,0 l/m 0 min 0 min 0 W/m 16,1 km/h (3 Bft) 93,62 %
22.11.2019 00:30 4,6 C 3,9 C 3,3 C 96 % 1006,5 hPa 0,0 l/m 0 min 0 min 0 W/m 12,9 km/h (3 Bft) 97,87 %
22.11.2019 00:32 4,6 C 3,9 C 3,3 C 96 % 1006,5 hPa 0,0 l/m 0 min 0 min 0 W/m 19,3 km/h (3 Bft) 97,87 %
22.11.2019 00:34 4,6 C 3,9 C 3,3 C 96 % 1006,5 hPa 0,0 l/m 0 min 0 min 0 W/m 12,9 km/h (3 Bft) 97,83 %
22.11.2019 00:36 4,6 C 3,9 C 3,3 C 96 % 1006,5 hPa 0,0 l/m 0 min 0 min 0 W/m 12,9 km/h (3 Bft) 93,62 %
22.11.2019 00:38 4,6 C 3,9 C 3,3 C 96 % 1006,5 hPa 0,0 l/m 0 min 0 min 0 W/m 19,3 km/h (3 Bft) 95,74 %
22.11.2019 00:40 4,6 C 3,9 C 3,3 C 96 % 1006,4 hPa 0,0 l/m 0 min 0 min 0 W/m 16,1 km/h (3 Bft) 93,62 %
22.11.2019 00:42 4,6 C 3,9 C 3,3 C 96 % 1006,4 hPa 0,0 l/m 0 min 0 min 0 W/m 16,1 km/h (3 Bft) 97,87 %
22.11.2019 00:44 4,6 C 3,9 C 3,3 C 96 % 1006,3 hPa 0,0 l/m 0 min 0 min 0 W/m 12,9 km/h (3 Bft) 93,62 %
22.11.2019 00:46 4,6 C 3,9 C 3,3 C 96 % 1006,4 hPa 0,0 l/m 0 min 0 min 0 W/m 16,1 km/h (3 Bft) 91,30 %
22.11.2019 00:48 4,6 C 3,9 C 3,3 C 96 % 1006,4 hPa 0,0 l/m 0 min 0 min 0 W/m 16,1 km/h (3 Bft) 91,49 %
22.11.2019 00:50 4,6 C 3,9 C 3,3 C 96 % 1006,3 hPa 0,0 l/m 0 min 0 min 0 W/m 12,9 km/h (3 Bft) 93,62 %
22.11.2019 00:52 4,5 C 3,9 C 2,8 C 96 % 1006,3 hPa 0,0 l/m 0 min 0 min 0 W/m 16,1 km/h (3 Bft) 91,49 %
22.11.2019 00:54 4,5 C 3,9 C 3,3 C 96 % 1006,3 hPa 0,0 l/m 0 min 0 min 0 W/m 16,1 km/h (3 Bft) 93,62 %
22.11.2019 00:56 4,5 C 3,9 C 3,3 C 96 % 1006,3 hPa 0,0 l/m 0 min 0 min 0 W/m 16,1 km/h (3 Bft) 91,49 %
22.11.2019 00:58 4,4 C 3,9 C 3,3 C 96 % 1006,4 hPa 0,0 l/m 0 min 0 min 0 W/m 16,1 km/h (3 Bft) 93,48 %
22.11.2019 01:00 4,4 C 3,9 C 3,3 C 96 % 1006,4 hPa 0,0 l/m 0 min 0 min 0 W/m 22,5 km/h (4 Bft) 91,49 %
22.11.2019 01:02 4,4 C 3,9 C 3,3 C 96 % 1006,3 hPa 0,0 l/m 0 min 0 min 0 W/m 16,1 km/h (3 Bft) 93,62 %
22.11.2019 01:04 4,4 C 3,9 C 3,3 C 96 % 1006,4 hPa 0,0 l/m 0 min 0 min 0 W/m 19,3 km/h (3 Bft) 93,62 %
22.11.2019 01:06 4,4 C 3,9 C 3,3 C 96 % 1006,4 hPa 0,0 l/m 0 min 0 min 0 W/m 16,1 km/h (3 Bft) 95,74 %
22.11.2019 01:08 4,4 C 3,9 C 2,8 C 96 % 1006,4 hPa 0,0 l/m 0 min 0 min 0 W/m 12,9 km/h (3 Bft) 93,62 %
22.11.2019 01:10 4,4 C 3,9 C 2,8 C 96 % 1006,5 hPa 0,0 l/m 0 min 0 min 0 W/m 16,1 km/h (3 Bft) 91,30 %
22.11.2019 01:12 4,4 C 3,9 C 2,8 C 96 % 1006,4 hPa 0,0 l/m 0 min 0 min 0 W/m 16,1 km/h (3 Bft) 91,49 %
22.11.2019 01:14 4,4 C 3,9 C 2,8 C 96 % 1006,5 hPa 0,0 l/m 0 min 0 min 0 W/m 12,9 km/h (3 Bft) 95,74 %
22.11.2019 01:16 4,4 C 3,9 C 2,8 C 96 % 1006,5 hPa 0,0 l/m 0 min 0 min 0 W/m 19,3 km/h (3 Bft) 95,74 %
22.11.2019 01:18 4,4 C 3,9 C 2,8 C 96 % 1006,4 hPa 0,0 l/m 0 min 0 min 0 W/m 29,0 km/h (5 Bft) 95,74 %
22.11.2019 01:20 4,4 C 3,9 C 2,8 C 96 % 1006,4 hPa 0,0 l/m 0 min 0 min 0 W/m 22,5 km/h (4 Bft) 95,65 %
22.11.2019 01:22 4,3 C 3,9 C 3,3 C 95 % 1006,4 hPa 0,0 l/m 0 min 0 min 0 W/m 19,3 km/h (3 Bft) 93,62 %
22.11.2019 01:24 4,3 C 3,9 C 3,3 C 95 % 1006,4 hPa 0,0 l/m 0 min 0 min 0 W/m 22,5 km/h (4 Bft) 95,74 %
22.11.2019 01:26 4,4 C 3,9 C 3,3 C 95 % 1006,4 hPa 0,0 l/m 0 min 0 min 0 W/m 16,1 km/h (3 Bft) 97,87 %
22.11.2019 01:28 4,3 C 3,9 C 3,3 C 95 % 1006,4 hPa 0,0 l/m 0 min 0 min 0 W/m 22,5 km/h (4 Bft) 97,87 %
22.11.2019 01:30 4,4 C 3,9 C 3,3 C 95 % 1006,4 hPa 0,0 l/m 0 min 0 min 0 W/m 19,3 km/h (3 Bft) 95,74 %
22.11.2019 01:32 4,4 C 3,9 C 3,3 C 95 % 1006,4 hPa 0,0 l/m 0 min 0 min 0 W/m 19,3 km/h (3 Bft) 97,83 %
22.11.2019 01:34 4,3 C 3,9 C 3,3 C 95 % 1006,4 hPa 0,0 l/m 0 min 0 min 0 W/m 19,3 km/h (3 Bft) 100,00 %
22.11.2019 01:36 4,3 C 3,9 C 3,3 C 96 % 1006,5 hPa 0,0 l/m 0 min 0 min 0 W/m 22,5 km/h (4 Bft) 97,87 %
22.11.2019 01:38 4,3 C 3,9 C 3,3 C 96 % 1006,4 hPa 0,0 l/m 0 min 0 min 0 W/m 19,3 km/h (3 Bft) 97,87 %
22.11.2019 01:40 4,4 C 3,9 C 3,3 C 96 % 1006,5 hPa 0,0 l/m 0 min 0 min 0 W/m 19,3 km/h (3 Bft) 97,87 %
22.11.2019 01:42 4,3 C 3,9 C 3,3 C 96 % 1006,4 hPa 0,0 l/m 0 min 0 min 0 W/m 19,3 km/h (3 Bft) 100,00 %
22.11.2019 01:44 4,3 C 3,9 C 3,3 C 96 % 1006,4 hPa 0,0 l/m 0 min 0 min 0 W/m 25,7 km/h (4 Bft) 97,83 %
22.11.2019 01:46 4,3 C 3,9 C 3,3 C 96 % 1006,5 hPa 0,0 l/m 0 min 0 min 0 W/m 25,7 km/h (4 Bft) 100,00 %
22.11.2019 01:48 4,4 C 3,9 C 3,3 C 96 % 1006,4 hPa 0,0 l/m 0 min 0 min 0 W/m 22,5 km/h (4 Bft) 100,00 %
22.11.2019 01:50 4,3 C 3,9 C 2,8 C 96 % 1006,4 hPa 0,0 l/m 0 min 0 min 0 W/m 22,5 km/h (4 Bft) 97,87 %
22.11.2019 01:52 4,3 C 3,9 C 2,8 C 96 % 1006,4 hPa 0,0 l/m 0 min 0 min 0 W/m 16,1 km/h (3 Bft) 95,74 %
22.11.2019 01:54 4,3 C 3,9 C 2,8 C 96 % 1006,5 hPa 0,0 l/m 0 min 0 min 0 W/m 22,5 km/h (4 Bft) 100,00 %
22.11.2019 01:56 4,3 C 3,9 C 2,8 C 95 % 1006,4 hPa 0,0 l/m 0 min 0 min 0 W/m 16,1 km/h (3 Bft) 100,00 %
22.11.2019 01:58 4,3 C 3,3 C 2,8 C 95 % 1006,4 hPa 0,0 l/m 0 min 0 min 0 W/m 19,3 km/h (3 Bft) 100,00 %
22.11.2019 02:00 4,3 C 3,3 C 2,8 C 95 % 1006,4 hPa 0,0 l/m 0 min 0 min 0 W/m 19,3 km/h (3 Bft) 100,00 %
22.11.2019 02:02 4,3 C 3,3 C 2,8 C 95 % 1006,5 hPa 0,0 l/m 0 min 0 min 0 W/m 19,3 km/h (3 Bft) 100,00 %
22.11.2019 02:04 4,3 C 3,3 C 2,8 C 95 % 1006,5 hPa 0,0 l/m 0 min 0 min 0 W/m 16,1 km/h (3 Bft) 97,87 %
22.11.2019 02:06 4,3 C 3,3 C 2,8 C 95 % 1006,5 hPa 0,0 l/m 0 min 0 min 0 W/m 25,7 km/h (4 Bft) 97,87 %
22.11.2019 02:08 4,3 C 3,3 C 2,8 C 95 % 1006,5 hPa 0,0 l/m 0 min 0 min 0 W/m 25,7 km/h (4 Bft) 100,00 %
22.11.2019 02:10 4,3 C 3,3 C 2,8 C 95 % 1006,5 hPa 0,0 l/m 0 min 0 min 0 W/m 19,3 km/h (3 Bft) 100,00 %
22.11.2019 02:12 4,3 C 3,3 C 2,8 C 95 % 1006,5 hPa 0,0 l/m 0 min 0 min 0 W/m 19,3 km/h (3 Bft) 100,00 %
22.11.2019 02:14 4,3 C 3,9 C 2,8 C 95 % 1006,5 hPa 0,0 l/m 0 min 0 min 0 W/m 19,3 km/h (3 Bft) 100,00 %
22.11.2019 02:16 4,3 C 3,3 C 2,8 C 95 % 1006,4 hPa 0,0 l/m 0 min 0 min 0 W/m 16,1 km/h (3 Bft) 100,00 %
22.11.2019 02:18 4,2 C 3,3 C 2,8 C 95 % 1006,5 hPa 0,0 l/m 0 min 0 min 0 W/m 16,1 km/h (3 Bft) 100,00 %
22.11.2019 02:20 4,3 C 3,9 C 2,8 C 95 % 1006,5 hPa 0,0 l/m 0 min 0 min 0 W/m 19,3 km/h (3 Bft) 100,00 %
22.11.2019 02:22 4,3 C 3,9 C 2,8 C 95 % 1006,4 hPa 0,0 l/m 0 min 0 min 0 W/m 16,1 km/h (3 Bft) 100,00 %
22.11.2019 02:24 4,3 C 3,9 C 3,3 C 95 % 1006,5 hPa 0,0 l/m 0 min 0 min 0 W/m 22,5 km/h (4 Bft) 97,87 %
22.11.2019 02:26 4,3 C 3,9 C 3,3 C 95 % 1006,5 hPa 0,0 l/m 0 min 0 min 0 W/m 16,1 km/h (3 Bft) 97,87 %
22.11.2019 02:28 4,3 C 3,9 C 3,3 C 95 % 1006,6 hPa 0,0 l/m 0 min 0 min 0 W/m 25,7 km/h (4 Bft) 100,00 %
22.11.2019 02:30 4,3 C 3,9 C 3,3 C 96 % 1006,6 hPa 0,0 l/m 0 min 0 min 0 W/m 19,3 km/h (3 Bft) 100,00 %
22.11.2019 02:32 4,3 C 3,9 C 3,3 C 96 % 1006,5 hPa 0,0 l/m 0 min 0 min 0 W/m 22,5 km/h (4 Bft) 97,87 %
22.11.2019 02:34 4,4 C 3,9 C 3,3 C 96 % 1006,5 hPa 0,0 l/m 0 min 0 min 0 W/m 22,5 km/h (4 Bft) 100,00 %
22.11.2019 02:36 4,4 C 3,9 C 3,3 C 96 % 1006,5 hPa 0,0 l/m 0 min 0 min 0 W/m 16,1 km/h (3 Bft) 100,00 %
22.11.2019 02:38 4,4 C 4,4 C 3,3 C 96 % 1006,4 hPa 0,0 l/m 0 min 0 min 0 W/m 16,1 km/h (3 Bft) 100,00 %
22.11.2019 02:40 4,4 C 4,4 C 3,3 C 96 % 1006,4 hPa 0,0 l/m 0 min 0 min 0 W/m 16,1 km/h (3 Bft) 100,00 %
22.11.2019 02:42 4,5 C 4,4 C 3,3 C 95 % 1006,4 hPa 0,0 l/m 0 min 0 min 0 W/m 16,1 km/h (3 Bft) 100,00 %
22.11.2019 02:44 4,5 C 4,4 C 3,3 C 95 % 1006,4 hPa 0,0 l/m 0 min 0 min 0 W/m 6,4 km/h (2 Bft) 100,00 %
22.11.2019 02:46 4,6 C 4,4 C 3,3 C 95 % 1006,4 hPa 0,0 l/m 0 min 0 min 0 W/m 16,1 km/h (3 Bft) 100,00 %
22.11.2019 02:48 4,6 C 4,4 C 3,3 C 95 % 1006,3 hPa 0,0 l/m 0 min 0 min 0 W/m 19,3 km/h (3 Bft) 95,74 %
22.11.2019 02:50 4,6 C 4,4 C 3,9 C 95 % 1006,3 hPa 0,0 l/m 0 min 0 min 0 W/m 16,1 km/h (3 Bft) 100,00 %
22.11.2019 02:52 4,6 C 4,4 C 3,9 C 95 % 1006,3 hPa 0,0 l/m 0 min 0 min 0 W/m 12,9 km/h (3 Bft) 97,87 %
22.11.2019 02:54 4,6 C 4,4 C 3,9 C 95 % 1006,3 hPa 0,0 l/m 0 min 0 min 0 W/m 16,1 km/h (3 Bft) 100,00 %
22.11.2019 02:56 4,7 C 4,4 C 3,9 C 95 % 1006,3 hPa 0,0 l/m 0 min 0 min 0 W/m 16,1 km/h (3 Bft) 100,00 %
22.11.2019 02:58 4,7 C 4,4 C 3,9 C 96 % 1006,3 hPa 0,0 l/m 0 min 0 min 0 W/m 16,1 km/h (3 Bft) 100,00 %
22.11.2019 03:00 4,7 C 4,4 C 3,9 C 96 % 1006,3 hPa 0,0 l/m 0 min 0 min 0 W/m 12,9 km/h (3 Bft) 100,00 %
22.11.2019 03:02 4,7 C 4,4 C 3,9 C 96 % 1006,3 hPa 0,0 l/m 0 min 0 min 0 W/m 19,3 km/h (3 Bft) 100,00 %
22.11.2019 03:04 4,7 C 4,4 C 3,9 C 96 % 1006,3 hPa 0,0 l/m 0 min 0 min 0 W/m 19,3 km/h (3 Bft) 100,00 %
22.11.2019 03:06 4,7 C 4,4 C 3,9 C 96 % 1006,3 hPa 0,0 l/m 0 min 0 min 0 W/m 19,3 km/h (3 Bft) 100,00 %
22.11.2019 03:08 4,8 C 4,4 C 3,9 C 95 % 1006,3 hPa 0,0 l/m 0 min 0 min 0 W/m 22,5 km/h (4 Bft) 100,00 %
22.11.2019 03:10 4,8 C 4,4 C 3,9 C 95 % 1006,3 hPa 0,0 l/m 0 min 0 min 0 W/m 25,7 km/h (4 Bft) 100,00 %
22.11.2019 03:12 4,8 C 4,4 C 3,9 C 95 % 1006,3 hPa 0,0 l/m 0 min 0 min 0 W/m 25,7 km/h (4 Bft) 100,00 %
22.11.2019 03:14 4,8 C 4,4 C 3,9 C 95 % 1006,3 hPa 0,0 l/m 0 min 0 min 0 W/m 22,5 km/h (4 Bft) 97,87 %
22.11.2019 03:16 4,8 C 4,4 C 3,9 C 95 % 1006,4 hPa 0,0 l/m 0 min 0 min 0 W/m 16,1 km/h (3 Bft) 97,83 %
22.11.2019 03:18 4,9 C 4,4 C 3,9 C 95 % 1006,3 hPa 0,0 l/m 0 min 0 min 0 W/m 19,3 km/h (3 Bft) 97,87 %
22.11.2019 03:20 4,9 C 4,4 C 3,9 C 95 % 1006,3 hPa 0,0 l/m 0 min 0 min 0 W/m 19,3 km/h (3 Bft) 97,87 %
22.11.2019 03:22 4,9 C 4,4 C 3,9 C 95 % 1006,3 hPa 0,0 l/m 0 min 0 min 0 W/m 22,5 km/h (4 Bft) 95,74 %
22.11.2019 03:24 4,9 C 4,4 C 3,9 C 95 % 1006,3 hPa 0,0 l/m 0 min 0 min 0 W/m 16,1 km/h (3 Bft) 93,62 %
22.11.2019 03:26 4,9 C 4,4 C 3,9 C 95 % 1006,3 hPa 0,0 l/m 0 min 0 min 0 W/m 19,3 km/h (3 Bft) 93,62 %
22.11.2019 03:28 4,9 C 4,4 C 3,9 C 95 % 1006,3 hPa 0,0 l/m 0 min 0 min 0 W/m 12,9 km/h (3 Bft) 93,48 %
22.11.2019 03:30 4,9 C 4,4 C 3,9 C 95 % 1006,3 hPa 0,0 l/m 0 min 0 min 0 W/m 16,1 km/h (3 Bft) 95,74 %
22.11.2019 03:32 4,9 C 4,4 C 3,9 C 95 % 1006,3 hPa 0,0 l/m 0 min 0 min 0 W/m 25,7 km/h (4 Bft) 93,62 %
22.11.2019 03:34 5,0 C 4,4 C 3,9 C 95 % 1006,3 hPa 0,0 l/m 0 min 0 min 0 W/m 12,9 km/h (3 Bft) 93,62 %
22.11.2019 03:36 5,0 C 4,4 C 3,9 C 95 % 1006,3 hPa 0,0 l/m 0 min 0 min 0 W/m 16,1 km/h (3 Bft) 53,33 %
22.11.2019 03:38 5,0 C 4,4 C 3,9 C 95 % 1006,3 hPa 0,0 l/m 0 min 0 min 0 W/m 22,5 km/h (4 Bft) 95,74 %
22.11.2019 03:40 5,0 C 4,4 C 3,9 C 95 % 1006,4 hPa 0,0 l/m 0 min 0 min 0 W/m 19,3 km/h (3 Bft) 93,48 %
22.11.2019 03:42 5,0 C 4,4 C 3,9 C 95 % 1006,4 hPa 0,0 l/m 0 min 0 min 0 W/m 22,5 km/h (4 Bft) 93,62 %
22.11.2019 03:44 5,1 C 4,4 C 3,9 C 95 % 1006,3 hPa 0,0 l/m 0 min 0 min 0 W/m 22,5 km/h (4 Bft) 93,62 %
22.11.2019 03:46 5,1 C 4,4 C 3,9 C 95 % 1006,4 hPa 0,0 l/m 0 min 0 min 0 W/m 22,5 km/h (4 Bft) 89,36 %
22.11.2019 03:48 5,1 C 4,4 C 3,9 C 95 % 1006,4 hPa 0,0 l/m 0 min 0 min 0 W/m 29,0 km/h (5 Bft) 93,62 %
22.11.2019 03:50 5,1 C 4,4 C 3,9 C 95 % 1006,3 hPa 0,0 l/m 0 min 0 min 0 W/m 29,0 km/h (5 Bft) 91,49 %
22.11.2019 03:52 5,1 C 4,4 C 3,9 C 94 % 1006,3 hPa 0,0 l/m 0 min 0 min 0 W/m 22,5 km/h (4 Bft) 93,48 %
22.11.2019 03:54 5,1 C 4,4 C 3,9 C 94 % 1006,3 hPa 0,0 l/m 0 min 0 min 0 W/m 22,5 km/h (4 Bft) 93,62 %
22.11.2019 03:56 5,1 C 4,4 C 3,9 C 95 % 1006,4 hPa 0,0 l/m 0 min 0 min 0 W/m 25,7 km/h (4 Bft) 95,74 %
22.11.2019 03:58 5,1 C 4,4 C 3,9 C 94 % 1006,3 hPa 0,0 l/m 0 min 0 min 0 W/m 22,5 km/h (4 Bft) 95,74 %
22.11.2019 04:00 5,1 C 4,4 C 3,9 C 94 % 1006,2 hPa 0,0 l/m 0 min 0 min 0 W/m 25,7 km/h (4 Bft) 93,62 %
22.11.2019 04:02 5,1 C 4,4 C 3,9 C 94 % 1006,3 hPa 0,0 l/m 0 min 0 min 0 W/m 19,3 km/h (3 Bft) 83,33 %
22.11.2019 04:04 5,1 C 4,4 C 3,9 C 94 % 1006,2 hPa 0,0 l/m 0 min 0 min 0 W/m 25,7 km/h (4 Bft) 95,65 %
22.11.2019 04:06 5,1 C 4,4 C 3,9 C 94 % 1006,2 hPa 0,0 l/m 0 min 0 min 0 W/m 12,9 km/h (3 Bft) 95,74 %
22.11.2019 04:08 5,2 C 4,4 C 3,9 C 94 % 1006,2 hPa 0,0 l/m 0 min 0 min 0 W/m 19,3 km/h (3 Bft) 95,74 %
22.11.2019 04:10 5,1 C 4,4 C 3,9 C 94 % 1006,2 hPa 0,0 l/m 0 min 0 min 0 W/m 22,5 km/h (4 Bft) 95,74 %
22.11.2019 04:12 5,1 C 4,4 C 3,9 C 94 % 1006,2 hPa 0,0 l/m 0 min 0 min 0 W/m 16,1 km/h (3 Bft) 95,74 %
22.11.2019 04:14 5,2 C 4,4 C 3,9 C 94 % 1006,1 hPa 0,0 l/m 0 min 0 min 0 W/m 16,1 km/h (3 Bft) 95,74 %
22.11.2019 04:16 5,2 C 4,4 C 3,9 C 94 % 1006,1 hPa 0,0 l/m 0 min 0 min 0 W/m 19,3 km/h (3 Bft) 91,30 %
22.11.2019 04:18 5,2 C 4,4 C 3,9 C 94 % 1006,1 hPa 0,0 l/m 0 min 0 min 0 W/m 22,5 km/h (4 Bft) 97,87 %
22.11.2019 04:20 5,2 C 4,4 C 3,9 C 94 % 1006,1 hPa 0,0 l/m 0 min 0 min 0 W/m 16,1 km/h (3 Bft) 97,87 %
22.11.2019 04:22 5,2 C 4,4 C 3,9 C 94 % 1006,1 hPa 0,0 l/m 0 min 0 min 0 W/m 29,0 km/h (5 Bft) 97,87 %
22.11.2019 04:24 5,2 C 4,4 C 3,9 C 94 % 1006,1 hPa 0,0 l/m 0 min 0 min 0 W/m 22,5 km/h (4 Bft) 97,87 %
22.11.2019 04:26 5,2 C 4,4 C 3,9 C 94 % 1006,1 hPa 0,0 l/m 0 min 0 min 0 W/m 19,3 km/h (3 Bft) 97,83 %
22.11.2019 04:28 5,2 C 4,4 C 3,9 C 94 % 1006,1 hPa 0,0 l/m 0 min 0 min 0 W/m 19,3 km/h (3 Bft) 95,74 %
22.11.2019 04:30 5,2 C 4,4 C 3,9 C 94 % 1006,1 hPa 0,0 l/m 0 min 0 min 0 W/m 29,0 km/h (5 Bft) 95,74 %
22.11.2019 04:32 5,2 C 5,0 C 3,9 C 94 % 1006,1 hPa 0,0 l/m 0 min 0 min 0 W/m 25,7 km/h (4 Bft) 95,74 %
22.11.2019 04:34 5,2 C 5,0 C 3,9 C 94 % 1006,1 hPa 0,0 l/m 0 min 0 min 0 W/m 19,3 km/h (3 Bft) 97,87 %
22.11.2019 04:36 5,2 C 4,4 C 3,9 C 94 % 1006,1 hPa 0,0 l/m 0 min 2 min 0 W/m 22,5 km/h (4 Bft) 97,87 %
22.11.2019 04:38 5,2 C 4,4 C 3,9 C 94 % 1006,1 hPa 0,0 l/m 0 min 0 min 0 W/m 25,7 km/h (4 Bft) 100,00 %
22.11.2019 04:40 5,2 C 4,4 C 3,9 C 94 % 1006,1 hPa 0,0 l/m 0 min 0 min 0 W/m 25,7 km/h (4 Bft) 100,00 %
22.11.2019 04:42 5,2 C 5,0 C 3,9 C 94 % 1006,0 hPa 0,0 l/m 0 min 0 min 0 W/m 25,7 km/h (4 Bft) 100,00 %
22.11.2019 04:44 5,3 C 5,0 C 3,9 C 94 % 1006,1 hPa 0,0 l/m 0 min 0 min 0 W/m 25,7 km/h (4 Bft) 100,00 %
22.11.2019 04:46 5,3 C 5,0 C 3,9 C 94 % 1006,1 hPa 0,0 l/m 0 min 0 min 0 W/m 22,5 km/h (4 Bft) 97,87 %
22.11.2019 04:48 5,3 C 5,0 C 3,9 C 94 % 1006,1 hPa 0,0 l/m 0 min 0 min 0 W/m 22,5 km/h (4 Bft) 100,00 %
22.11.2019 04:50 5,3 C 5,0 C 3,9 C 94 % 1006,2 hPa 0,0 l/m 0 min 0 min 0 W/m 22,5 km/h (4 Bft) 100,00 %
22.11.2019 04:52 5,3 C 5,0 C 3,9 C 94 % 1006,2 hPa 0,0 l/m 0 min 0 min 0 W/m 19,3 km/h (3 Bft) 97,87 %
22.11.2019 04:54 5,3 C 5,0 C 3,9 C 94 % 1006,3 hPa 0,0 l/m 0 min 0 min 0 W/m 19,3 km/h (3 Bft) 100,00 %
22.11.2019 04:56 5,3 C 5,0 C 3,9 C 94 % 1006,3 hPa 0,0 l/m 0 min 2 min 0 W/m 22,5 km/h (4 Bft) 100,00 %
22.11.2019 04:58 5,3 C 4,4 C 3,9 C 94 % 1006,3 hPa 0,0 l/m 0 min 2 min 0 W/m 19,3 km/h (3 Bft) 100,00 %
22.11.2019 05:00 5,3 C 4,4 C 3,9 C 94 % 1006,1 hPa 0,0 l/m 0 min 2 min 0 W/m 16,1 km/h (3 Bft) 100,00 %
22.11.2019 05:02 5,4 C 4,4 C 3,9 C 94 % 1006,2 hPa 0,0 l/m 0 min 2 min 0 W/m 25,7 km/h (4 Bft) 97,83 %
22.11.2019 05:04 5,4 C 4,4 C 3,9 C 94 % 1006,1 hPa 0,0 l/m 0 min 2 min 0 W/m 12,9 km/h (3 Bft) 97,87 %
22.11.2019 05:06 5,4 C 4,4 C 3,9 C 94 % 1006,2 hPa 0,0 l/m 0 min 2 min 0 W/m 16,1 km/h (3 Bft) 100,00 %
22.11.2019 05:08 5,4 C 4,4 C 3,9 C 94 % 1006,2 hPa 0,0 l/m 0 min 2 min 0 W/m 22,5 km/h (4 Bft) 100,00 %
22.11.2019 05:10 5,4 C 4,4 C 3,9 C 94 % 1006,2 hPa 0,0 l/m 0 min 2 min 0 W/m 22,5 km/h (4 Bft) 97,87 %
22.11.2019 05:12 5,4 C 4,4 C 3,9 C 94 % 1006,2 hPa 0,0 l/m 0 min 0 min 0 W/m 29,0 km/h (5 Bft) 100,00 %
22.11.2019 05:14 5,4 C 4,4 C 3,9 C 94 % 1006,1 hPa 0,0 l/m 0 min 0 min 0 W/m 19,3 km/h (3 Bft) 100,00 %
22.11.2019 05:16 5,4 C 4,4 C 3,9 C 94 % 1006,0 hPa 0,0 l/m 0 min 0 min 0 W/m 19,3 km/h (3 Bft) 97,87 %
22.11.2019 05:18 5,4 C 4,4 C 3,9 C 94 % 1006,1 hPa 0,0 l/m 0 min 0 min 0 W/m 16,1 km/h (3 Bft) 100,00 %
22.11.2019 05:20 5,4 C 4,4 C 3,9 C 94 % 1006,1 hPa 0,0 l/m 0 min 0 min 0 W/m 25,7 km/h (4 Bft) 100,00 %
22.11.2019 05:22 5,4 C 4,4 C 3,9 C 94 % 1006,2 hPa 0,0 l/m 0 min 2 min 0 W/m 19,3 km/h (3 Bft) 100,00 %
22.11.2019 05:24 5,4 C 4,4 C 3,9 C 94 % 1006,3 hPa 0,0 l/m 0 min 2 min 0 W/m 19,3 km/h (3 Bft) 100,00 %
22.11.2019 05:26 5,5 C 4,4 C 3,9 C 94 % 1006,3 hPa 0,0 l/m 0 min 2 min 0 W/m 19,3 km/h (3 Bft) 100,00 %
22.11.2019 05:28 5,5 C 4,4 C 3,9 C 94 % 1006,2 hPa 0,0 l/m 0 min 2 min 0 W/m 16,1 km/h (3 Bft) 100,00 %
22.11.2019 05:30 5,5 C 4,4 C 3,9 C 94 % 1006,3 hPa 0,0 l/m 0 min 2 min 0 W/m 16,1 km/h (3 Bft) 100,00 %
22.11.2019 05:32 5,5 C 4,4 C 3,9 C 94 % 1006,2 hPa 0,0 l/m 0 min 2 min 0 W/m 16,1 km/h (3 Bft) 100,00 %
22.11.2019 05:34 5,5 C 3,9 C 3,9 C 94 % 1006,2 hPa 0,0 l/m 0 min 2 min 0 W/m 19,3 km/h (3 Bft) 100,00 %
22.11.2019 05:36 5,5 C 3,9 C 3,9 C 94 % 1006,3 hPa 0,0 l/m 0 min 2 min 0 W/m 19,3 km/h (3 Bft) 100,00 %
22.11.2019 05:38 5,5 C 3,9 C 3,9 C 94 % 1006,3 hPa 0,0 l/m 0 min 2 min 0 W/m 16,1 km/h (3 Bft) 100,00 %
22.11.2019 05:40 5,5 C 3,9 C 3,9 C 94 % 1006,3 hPa 0,0 l/m 0 min 2 min 0 W/m 19,3 km/h (3 Bft) 100,00 %
22.11.2019 05:42 5,5 C 3,9 C 3,9 C 94 % 1006,2 hPa 0,0 l/m 0 min 2 min 0 W/m 22,5 km/h (4 Bft) 95,74 %
22.11.2019 05:44 5,5 C 3,9 C 3,3 C 94 % 1006,2 hPa 0,2 l/m 0 min 2 min 0 W/m 19,3 km/h (3 Bft) 97,87 %
22.11.2019 05:46 5,5 C 3,9 C 3,3 C 94 % 1006,2 hPa 0,0 l/m 0 min 2 min 0 W/m 19,3 km/h (3 Bft) 95,74 %
22.11.2019 05:48 5,5 C 3,9 C 3,3 C 94 % 1006,3 hPa 0,0 l/m 0 min 2 min 0 W/m 22,5 km/h (4 Bft) 97,83 %
22.11.2019 05:50 5,5 C 3,9 C 3,3 C 94 % 1006,3 hPa 0,0 l/m 0 min 2 min 0 W/m 19,3 km/h (3 Bft) 97,87 %
22.11.2019 05:52 5,5 C 3,9 C 3,3 C 94 % 1006,3 hPa 0,0 l/m 0 min 2 min 0 W/m 19,3 km/h (3 Bft) 97,87 %
22.11.2019 05:54 5,5 C 3,9 C 3,3 C 95 % 1006,3 hPa 0,0 l/m 0 min 2 min 0 W/m 35,4 km/h (5 Bft) 97,87 %
22.11.2019 05:56 5,5 C 3,9 C 3,3 C 95 % 1006,3 hPa 0,0 l/m 0 min 2 min 0 W/m 22,5 km/h (4 Bft) 97,87 %
22.11.2019 05:58 5,5 C 3,9 C 3,3 C 94 % 1006,3 hPa 0,2 l/m 0 min 2 min 0 W/m 19,3 km/h (3 Bft) 97,87 %
22.11.2019 06:00 5,5 C 3,9 C 3,3 C 95 % 1006,3 hPa 0,0 l/m 0 min 2 min 0 W/m 16,1 km/h (3 Bft) 95,65 %
22.11.2019 06:02 5,4 C 3,9 C 3,3 C 95 % 1006,3 hPa 0,0 l/m 0 min 2 min 0 W/m 16,1 km/h (3 Bft) 95,74 %
22.11.2019 06:04 5,4 C 3,9 C 3,3 C 95 % 1006,4 hPa 0,2 l/m 0 min 2 min 0 W/m 16,1 km/h (3 Bft) 95,74 %
22.11.2019 06:06 5,4 C 3,9 C 3,3 C 95 % 1006,4 hPa 0,0 l/m 0 min 2 min 0 W/m 16,1 km/h (3 Bft) 97,87 %
22.11.2019 06:08 5,4 C 3,9 C 3,3 C 95 % 1006,4 hPa 0,2 l/m 0 min 2 min 0 W/m 19,3 km/h (3 Bft) 97,87 %
22.11.2019 06:10 5,4 C 3,9 C 3,3 C 95 % 1006,4 hPa 0,0 l/m 0 min 2 min 0 W/m 16,1 km/h (3 Bft) 97,87 %
22.11.2019 06:12 5,4 C 3,9 C 3,3 C 95 % 1006,4 hPa 0,0 l/m 0 min 2 min 0 W/m 16,1 km/h (3 Bft) 97,83 %
22.11.2019 06:14 5,4 C 3,9 C 3,3 C 95 % 1006,4 hPa 0,2 l/m 0 min 2 min 0 W/m 25,7 km/h (4 Bft) 97,87 %
22.11.2019 06:16 5,4 C 3,9 C 3,9 C 95 % 1006,4 hPa 0,0 l/m 0 min 2 min 0 W/m 16,1 km/h (3 Bft) 97,87 %
22.11.2019 06:18 5,4 C 3,9 C 3,9 C 95 % 1006,5 hPa 0,0 l/m 0 min 2 min 0 W/m 19,3 km/h (3 Bft) 97,87 %
22.11.2019 06:20 5,4 C 3,9 C 3,9 C 95 % 1006,5 hPa 0,0 l/m 0 min 2 min 0 W/m 22,5 km/h (4 Bft) 95,74 %
22.11.2019 06:22 5,4 C 3,9 C 3,9 C 95 % 1006,5 hPa 0,0 l/m 0 min 2 min 0 W/m 19,3 km/h (3 Bft) 95,65 %
22.11.2019 06:24 5,4 C 3,9 C 3,9 C 96 % 1006,4 hPa 0,0 l/m 0 min 2 min 0 W/m 16,1 km/h (3 Bft) 97,87 %
22.11.2019 06:26 5,4 C 3,9 C 3,9 C 96 % 1006,4 hPa 0,2 l/m 0 min 2 min 0 W/m 12,9 km/h (3 Bft) 97,87 %
22.11.2019 06:28 5,4 C 3,9 C 3,9 C 96 % 1006,4 hPa 0,0 l/m 0 min 2 min 0 W/m 16,1 km/h (3 Bft) 97,87 %
22.11.2019 06:30 5,4 C 4,4 C 3,9 C 96 % 1006,4 hPa 0,0 l/m 0 min 2 min 0 W/m 16,1 km/h (3 Bft) 97,87 %
22.11.2019 06:32 5,4 C 4,4 C 3,9 C 96 % 1006,4 hPa 0,0 l/m 0 min 2 min 0 W/m 16,1 km/h (3 Bft) 100,00 %
22.11.2019 06:34 5,4 C 4,4 C 3,9 C 96 % 1006,4 hPa 0,0 l/m 0 min 2 min 0 W/m 19,3 km/h (3 Bft) 100,00 %
22.11.2019 06:36 5,4 C 4,4 C 3,9 C 96 % 1006,4 hPa 0,0 l/m 0 min 2 min 0 W/m 16,1 km/h (3 Bft) 93,62 %
22.11.2019 06:38 5,4 C 4,4 C 3,9 C 96 % 1006,4 hPa 0,0 l/m 0 min 2 min 0 W/m 16,1 km/h (3 Bft) 95,74 %
22.11.2019 06:40 5,4 C 4,4 C 3,9 C 96 % 1006,3 hPa 0,0 l/m 0 min 2 min 0 W/m 22,5 km/h (4 Bft) 95,74 %
22.11.2019 06:42 5,4 C 4,4 C 3,9 C 96 % 1006,4 hPa 0,2 l/m 0 min 2 min 0 W/m 19,3 km/h (3 Bft) 93,62 %
22.11.2019 06:44 5,4 C 4,4 C 3,9 C 96 % 1006,5 hPa 0,0 l/m 0 min 2 min 0 W/m 12,9 km/h (3 Bft) 91,49 %
22.11.2019 06:46 5,4 C 4,4 C 3,9 C 96 % 1006,4 hPa 0,0 l/m 0 min 0 min 0 W/m 6,4 km/h (2 Bft) 93,48 %
22.11.2019 06:48 5,4 C 4,4 C 3,9 C 96 % 1006,4 hPa 0,0 l/m 0 min 0 min 0 W/m 16,1 km/h (3 Bft) 93,62 %
22.11.2019 06:50 5,4 C 4,4 C 3,9 C 96 % 1006,4 hPa 0,0 l/m 0 min 0 min 0 W/m 16,1 km/h (3 Bft) 95,74 %
22.11.2019 06:52 5,4 C 4,4 C 3,9 C 96 % 1006,4 hPa 0,0 l/m 0 min 0 min 0 W/m 19,3 km/h (3 Bft) 95,74 %
22.11.2019 06:54 5,4 C 4,4 C 3,9 C 96 % 1006,4 hPa 0,0 l/m 0 min 0 min 0 W/m 19,3 km/h (3 Bft) 95,74 %
22.11.2019 06:56 5,4 C 4,4 C 3,9 C 96 % 1006,4 hPa 0,0 l/m 0 min 0 min 0 W/m 16,1 km/h (3 Bft) 95,74 %
22.11.2019 06:58 5,4 C 4,4 C 3,9 C 96 % 1006,4 hPa 0,0 l/m 0 min 0 min 0 W/m 19,3 km/h (3 Bft) 95,65 %
22.11.2019 07:00 5,4 C 4,4 C 3,9 C 96 % 1006,4 hPa 0,0 l/m 0 min 0 min 0 W/m 16,1 km/h (3 Bft) 95,74 %
22.11.2019 07:02 5,4 C 4,4 C 3,9 C 96 % 1006,3 hPa 0,0 l/m 0 min 0 min 0 W/m 22,5 km/h (4 Bft) 95,74 %
22.11.2019 07:04 5,4 C 4,4 C 3,9 C 97 % 1006,4 hPa 0,0 l/m 0 min 0 min 0 W/m 16,1 km/h (3 Bft) 95,74 %
22.11.2019 07:06 5,4 C 4,4 C 3,9 C 97 % 1006,4 hPa 0,0 l/m 0 min 0 min 0 W/m 29,0 km/h (5 Bft) 95,74 %
22.11.2019 07:08 5,4 C 4,4 C 3,9 C 97 % 1006,4 hPa 0,0 l/m 0 min 2 min 0 W/m 16,1 km/h (3 Bft) 95,74 %
22.11.2019 07:10 5,4 C 4,4 C 3,9 C 97 % 1006,4 hPa 0,0 l/m 0 min 0 min 0 W/m 12,9 km/h (3 Bft) 95,65 %
22.11.2019 07:12 5,4 C 4,4 C 3,9 C 97 % 1006,4 hPa 0,0 l/m 0 min 0 min 0 W/m 19,3 km/h (3 Bft) 93,62 %
22.11.2019 07:14 5,4 C 4,4 C 3,9 C 97 % 1006,4 hPa 0,0 l/m 0 min 0 min 0 W/m 16,1 km/h (3 Bft) 95,74 %
22.11.2019 07:16 5,4 C 4,4 C 3,9 C 97 % 1006,4 hPa 0,0 l/m 0 min 0 min 0 W/m 25,7 km/h (4 Bft) 97,87 %
22.11.2019 07:18 5,4 C 4,4 C 3,9 C 97 % 1006,5 hPa 0,0 l/m 0 min 0 min 0 W/m 22,5 km/h (4 Bft) 91,49 %
22.11.2019 07:20 5,4 C 4,4 C 3,9 C 97 % 1006,5 hPa 0,0 l/m 0 min 0 min 0 W/m 16,1 km/h (3 Bft) 95,74 %
22.11.2019 07:22 5,4 C 4,4 C 3,9 C 97 % 1006,5 hPa 0,0 l/m 0 min 0 min 0 W/m 16,1 km/h (3 Bft) 95,65 %
22.11.2019 07:24 5,4 C 4,4 C 3,9 C 97 % 1006,5 hPa 0,0 l/m 0 min 0 min 0 W/m 16,1 km/h (3 Bft) 95,74 %
22.11.2019 07:26 5,4 C 4,4 C 3,9 C 97 % 1006,5 hPa 0,0 l/m 0 min 0 min 0 W/m 16,1 km/h (3 Bft) 95,74 %
22.11.2019 07:28 5,4 C 4,4 C 3,9 C 97 % 1006,5 hPa 0,0 l/m 0 min 0 min 0 W/m 16,1 km/h (3 Bft) 95,74 %
22.11.2019 07:30 5,4 C 4,4 C 3,9 C 97 % 1006,5 hPa 0,0 l/m 0 min 0 min 0 W/m 19,3 km/h (3 Bft) 95,74 %
22.11.2019 07:32 5,4 C 4,4 C 3,9 C 97 % 1006,4 hPa 0,0 l/m 0 min 0 min 0 W/m 12,9 km/h (3 Bft) 100,00 %
22.11.2019 07:34 5,4 C 4,4 C 3,9 C 97 % 1006,4 hPa 0,0 l/m 0 min 0 min 0 W/m 19,3 km/h (3 Bft) 100,00 %
22.11.2019 07:36 5,4 C 4,4 C 3,9 C 97 % 1006,4 hPa 0,0 l/m 0 min 0 min 0 W/m 16,1 km/h (3 Bft) 100,00 %
22.11.2019 07:38 5,4 C 4,4 C 3,9 C 97 % 1006,4 hPa 0,0 l/m 0 min 0 min 0 W/m 16,1 km/h (3 Bft) 97,87 %
22.11.2019 07:40 5,4 C 4,4 C 3,9 C 97 % 1006,4 hPa 0,0 l/m 0 min 0 min 0 W/m 19,3 km/h (3 Bft) 100,00 %
22.11.2019 07:42 5,4 C 4,4 C 3,9 C 97 % 1006,4 hPa 0,0 l/m 0 min 0 min 0 W/m 16,1 km/h (3 Bft) 95,74 %
22.11.2019 07:44 5,4 C 4,4 C 3,9 C 97 % 1006,4 hPa 0,0 l/m 0 min 0 min 0 W/m 22,5 km/h (4 Bft) 100,00 %
22.11.2019 07:46 5,4 C 4,4 C 3,9 C 97 % 1006,3 hPa 0,0 l/m 0 min 0 min 0 W/m 19,3 km/h (3 Bft) 100,00 %
22.11.2019 07:48 5,4 C 4,4 C 3,9 C 97 % 1006,4 hPa 0,0 l/m 0 min 0 min 0 W/m 19,3 km/h (3 Bft) 100,00 %
22.11.2019 07:50 5,4 C 4,4 C 3,9 C 97 % 1006,3 hPa 0,0 l/m 0 min 0 min 0 W/m 19,3 km/h (3 Bft) 100,00 %
22.11.2019 07:52 5,4 C 4,4 C 3,9 C 97 % 1006,3 hPa 0,0 l/m 0 min 0 min 0 W/m 19,3 km/h (3 Bft) 97,87 %
22.11.2019 07:54 5,4 C 4,4 C 3,9 C 97 % 1006,5 hPa 0,0 l/m 0 min 0 min 0 W/m 12,9 km/h (3 Bft) 100,00 %
22.11.2019 07:56 5,4 C 4,4 C 3,9 C 97 % 1006,5 hPa 0,0 l/m 0 min 0 min 0 W/m 16,1 km/h (3 Bft) 100,00 %
22.11.2019 07:58 5,4 C 4,4 C 3,9 C 97 % 1006,5 hPa 0,0 l/m 0 min 0 min 0 W/m 25,7 km/h (4 Bft) 100,00 %
22.11.2019 08:00 5,4 C 4,4 C 3,9 C 97 % 1006,6 hPa 0,0 l/m 0 min 0 min 0 W/m 19,3 km/h (3 Bft) 100,00 %
22.11.2019 08:02 5,4 C 4,4 C 3,9 C 97 % 1006,6 hPa 0,0 l/m 0 min 0 min 0 W/m 19,3 km/h (3 Bft) 100,00 %
22.11.2019 08:04 5,4 C 4,4 C 3,9 C 97 % 1006,6 hPa 0,0 l/m 0 min 0 min 0 W/m 16,1 km/h (3 Bft) 97,87 %
22.11.2019 08:06 5,4 C 4,4 C 3,9 C 97 % 1006,6 hPa 0,0 l/m 0 min 0 min 0 W/m 16,1 km/h (3 Bft) 100,00 %
22.11.2019 08:08 5,4 C 4,4 C 3,9 C 97 % 1006,7 hPa 0,0 l/m 0 min 0 min 0 W/m 12,9 km/h (3 Bft) 100,00 %
22.11.2019 08:10 5,4 C 4,4 C 3,9 C 97 % 1006,8 hPa 0,0 l/m 0 min 0 min 0 W/m 12,9 km/h (3 Bft) 100,00 %
22.11.2019 08:12 5,4 C 4,4 C 3,9 C 97 % 1006,7 hPa 0,0 l/m 0 min 0 min 5 W/m 16,1 km/h (3 Bft) 100,00 %
22.11.2019 08:14 5,4 C 4,4 C 3,9 C 97 % 1006,7 hPa 0,0 l/m 0 min 0 min 5 W/m 19,3 km/h (3 Bft) 97,87 %
22.11.2019 08:16 5,4 C 4,4 C 3,9 C 97 % 1006,6 hPa 0,0 l/m 0 min 0 min 7 W/m 16,1 km/h (3 Bft) 100,00 %
22.11.2019 08:18 5,4 C 4,4 C 3,9 C 97 % 1006,7 hPa 0,0 l/m 0 min 0 min 8 W/m 19,3 km/h (3 Bft) 97,87 %
22.11.2019 08:20 5,4 C 4,4 C 3,9 C 97 % 1006,7 hPa 0,0 l/m 0 min 0 min 10 W/m 12,9 km/h (3 Bft) 95,65 %
22.11.2019 08:22 5,4 C 4,4 C 3,9 C 97 % 1006,7 hPa 0,0 l/m 0 min 0 min 12 W/m 19,3 km/h (3 Bft) 95,74 %
22.11.2019 08:24 5,4 C 4,4 C 3,9 C 97 % 1006,8 hPa 0,0 l/m 0 min 0 min 13 W/m 22,5 km/h (4 Bft) 97,87 %
22.11.2019 08:26 5,4 C 4,4 C 3,9 C 97 % 1006,8 hPa 0,0 l/m 0 min 0 min 14 W/m 22,5 km/h (4 Bft) 95,74 %
22.11.2019 08:28 5,4 C 4,4 C 3,9 C 97 % 1006,8 hPa 0,0 l/m 0 min 0 min 14 W/m 16,1 km/h (3 Bft) 95,74 %
22.11.2019 08:30 5,4 C 4,4 C 3,9 C 97 % 1006,8 hPa 0,0 l/m 0 min 0 min 14 W/m 19,3 km/h (3 Bft) 95,65 %
22.11.2019 08:32 5,4 C 4,4 C 3,9 C 97 % 1006,8 hPa 0,0 l/m 0 min 0 min 14 W/m 19,3 km/h (3 Bft) 97,87 %
22.11.2019 08:34 5,4 C 4,4 C 3,9 C 97 % 1006,8 hPa 0,0 l/m 0 min 0 min 16 W/m 22,5 km/h (4 Bft) 97,87 %
22.11.2019 08:36 5,4 C 4,4 C 3,9 C 97 % 1006,9 hPa 0,0 l/m 0 min 0 min 17 W/m 22,5 km/h (4 Bft) 97,87 %
22.11.2019 08:38 5,4 C 4,4 C 3,9 C 97 % 1006,9 hPa 0,0 l/m 0 min 0 min 20 W/m 22,5 km/h (4 Bft) 97,87 %
22.11.2019 08:40 5,4 C 4,4 C 3,9 C 97 % 1006,9 hPa 0,0 l/m 0 min 0 min 22 W/m 19,3 km/h (3 Bft) 95,56 %
22.11.2019 08:42 5,4 C 4,4 C 3,9 C 97 % 1006,8 hPa 0,0 l/m 0 min 0 min 26 W/m 16,1 km/h (3 Bft) 95,74 %
22.11.2019 08:44 5,4 C 4,4 C 3,9 C 97 % 1006,9 hPa 0,0 l/m 0 min 0 min 32 W/m 19,3 km/h (3 Bft) 93,48 %
22.11.2019 08:46 5,4 C 4,4 C 3,9 C 97 % 1006,9 hPa 0,0 l/m 0 min 0 min 35 W/m 19,3 km/h (3 Bft) 95,74 %
22.11.2019 08:48 5,4 C 4,4 C 3,9 C 97 % 1006,9 hPa 0,0 l/m 0 min 0 min 37 W/m 19,3 km/h (3 Bft) 97,87 %
22.11.2019 08:50 5,4 C 5,0 C 3,9 C 97 % 1007,0 hPa 0,0 l/m 0 min 0 min 36 W/m 16,1 km/h (3 Bft) 95,74 %
22.11.2019 08:52 5,4 C 5,0 C 3,9 C 97 % 1007,0 hPa 0,0 l/m 0 min 0 min 42 W/m 22,5 km/h (4 Bft) 97,87 %
22.11.2019 08:54 5,4 C 5,0 C 4,4 C 97 % 1006,9 hPa 0,0 l/m 0 min 0 min 48 W/m 19,3 km/h (3 Bft) 97,87 %
22.11.2019 08:56 5,4 C 5,0 C 4,4 C 97 % 1006,9 hPa 0,0 l/m 2 min 0 min 56 W/m 16,1 km/h (3 Bft) 97,83 %
22.11.2019 08:58 5,4 C 5,0 C 4,4 C 97 % 1007,0 hPa 0,0 l/m 2 min 0 min 66 W/m 12,9 km/h (3 Bft) 95,74 %
22.11.2019 09:00 5,5 C 5,0 C 4,4 C 98 % 1007,0 hPa 0,0 l/m 2 min 0 min 62 W/m 22,5 km/h (4 Bft) 100,00 %
22.11.2019 09:02 5,5 C 5,0 C 4,4 C 98 % 1007,0 hPa 0,0 l/m 0 min 0 min 56 W/m 22,5 km/h (4 Bft) 100,00 %
22.11.2019 09:04 5,6 C 5,0 C 4,4 C 98 % 1007,0 hPa 0,0 l/m 0 min 0 min 51 W/m 22,5 km/h (4 Bft) 100,00 %
22.11.2019 09:06 5,6 C 5,0 C 4,4 C 98 % 1007,1 hPa 0,0 l/m 0 min 0 min 50 W/m 19,3 km/h (3 Bft) 100,00 %
22.11.2019 09:08 5,6 C 5,0 C 4,4 C 98 % 1007,0 hPa 0,0 l/m 0 min 0 min 47 W/m 19,3 km/h (3 Bft) 97,83 %
22.11.2019 09:10 5,6 C 5,0 C 4,4 C 98 % 1007,1 hPa 0,0 l/m 0 min 0 min 40 W/m 22,5 km/h (4 Bft) 100,00 %
22.11.2019 09:12 5,6 C 5,0 C 4,4 C 98 % 1007,1 hPa 0,0 l/m 0 min 0 min 37 W/m 19,3 km/h (3 Bft) 100,00 %
22.11.2019 09:14 5,6 C 5,0 C 4,4 C 98 % 1007,1 hPa 0,0 l/m 0 min 0 min 39 W/m 25,7 km/h (4 Bft) 97,87 %
22.11.2019 09:16 5,7 C 5,0 C 4,4 C 98 % 1007,1 hPa 0,0 l/m 0 min 0 min 43 W/m 16,1 km/h (3 Bft) 100,00 %
22.11.2019 09:18 5,7 C 5,0 C 4,4 C 98 % 1007,1 hPa 0,0 l/m 0 min 0 min 47 W/m 22,5 km/h (4 Bft) 100,00 %
22.11.2019 09:20 5,7 C 5,0 C 4,4 C 97 % 1007,1 hPa 0,0 l/m 0 min 0 min 50 W/m 16,1 km/h (3 Bft) 100,00 %
22.11.2019 09:22 5,7 C 5,0 C 4,4 C 97 % 1007,1 hPa 0,0 l/m 0 min 0 min 55 W/m 12,9 km/h (3 Bft) 100,00 %
22.11.2019 09:24 5,7 C 5,0 C 4,4 C 97 % 1007,1 hPa 0,0 l/m 0 min 0 min 60 W/m 19,3 km/h (3 Bft) 97,87 %
22.11.2019 09:26 5,7 C 5,6 C 4,4 C 97 % 1007,1 hPa 0,0 l/m 0 min 0 min 64 W/m 6,4 km/h (2 Bft) 100,00 %
22.11.2019 09:28 5,7 C 5,6 C 4,4 C 97 % 1007,1 hPa 0,0 l/m 0 min 0 min 65 W/m 12,9 km/h (3 Bft) 100,00 %
22.11.2019 09:30 5,8 C 5,6 C 4,4 C 97 % 1007,1 hPa 0,0 l/m 0 min 0 min 64 W/m 12,9 km/h (3 Bft) 97,87 %
22.11.2019 09:32 5,8 C 5,6 C 4,4 C 97 % 1007,2 hPa 0,0 l/m 0 min 0 min 68 W/m 16,1 km/h (3 Bft) 97,83 %
22.11.2019 09:34 5,8 C 5,6 C 4,4 C 97 % 1007,1 hPa 0,0 l/m 0 min 0 min 66 W/m 16,1 km/h (3 Bft) 95,74 %
22.11.2019 09:36 5,8 C 5,6 C 4,4 C 97 % 1007,1 hPa 0,0 l/m 0 min 0 min 64 W/m 19,3 km/h (3 Bft) 97,87 %
22.11.2019 09:38 5,8 C 5,6 C 4,4 C 97 % 1007,1 hPa 0,0 l/m 0 min 0 min 68 W/m 19,3 km/h (3 Bft) 97,87 %
22.11.2019 09:40 5,8 C 5,6 C 4,4 C 97 % 1007,1 hPa 0,0 l/m 0 min 0 min 65 W/m 16,1 km/h (3 Bft) 95,74 %
22.11.2019 09:42 5,8 C 5,6 C 4,4 C 98 % 1007,0 hPa 0,0 l/m 0 min 0 min 68 W/m 19,3 km/h (3 Bft) 97,83 %
22.11.2019 09:44 5,9 C 5,6 C 5,0 C 98 % 1007,1 hPa 0,0 l/m 0 min 0 min 83 W/m 6,4 km/h (2 Bft) 97,87 %
22.11.2019 09:46 5,9 C 6,1 C 5,0 C 98 % 1007,0 hPa 0,0 l/m 2 min 0 min 99 W/m 12,9 km/h (3 Bft) 97,87 %
22.11.2019 09:48 5,9 C 6,1 C 5,0 C 98 % 1007,1 hPa 0,0 l/m 2 min 0 min 104 W/m 12,9 km/h (3 Bft) 95,74 %
22.11.2019 09:50 5,9 C 6,1 C 5,0 C 98 % 1007,0 hPa 0,0 l/m 0 min 0 min 97 W/m 19,3 km/h (3 Bft) 97,87 %
22.11.2019 09:52 5,9 C 6,1 C 5,0 C 98 % 1007,1 hPa 0,0 l/m 0 min 0 min 88 W/m 16,1 km/h (3 Bft) 95,74 %
22.11.2019 09:54 6,0 C 6,1 C 5,0 C 98 % 1007,1 hPa 0,0 l/m 0 min 0 min 81 W/m 16,1 km/h (3 Bft) 95,65 %
22.11.2019 09:56 6,0 C 6,1 C 5,0 C 98 % 1007,1 hPa 0,0 l/m 0 min 0 min 78 W/m 16,1 km/h (3 Bft) 95,74 %
22.11.2019 09:58 6,0 C 6,1 C 5,0 C 98 % 1007,1 hPa 0,0 l/m 0 min 0 min 80 W/m 12,9 km/h (3 Bft) 95,74 %
22.11.2019 10:00 6,1 C 6,1 C 5,0 C 97 % 1007,0 hPa 0,0 l/m 0 min 0 min 80 W/m 12,9 km/h (3 Bft) 93,62 %
22.11.2019 10:02 6,1 C 6,1 C 5,0 C 97 % 1007,0 hPa 0,0 l/m 0 min 0 min 83 W/m 12,9 km/h (3 Bft) 95,74 %
22.11.2019 10:04 6,1 C 6,7 C 5,0 C 97 % 1007,1 hPa 0,0 l/m 0 min 0 min 94 W/m 19,3 km/h (3 Bft) 93,62 %
22.11.2019 10:06 6,1 C 6,1 C 5,0 C 97 % 1007,1 hPa 0,0 l/m 0 min 0 min 103 W/m 19,3 km/h (3 Bft) 95,65 %
22.11.2019 10:08 6,1 C 6,7 C 5,0 C 97 % 1007,1 hPa 0,0 l/m 2 min 0 min 126 W/m 16,1 km/h (3 Bft) 95,74 %
22.11.2019 10:10 6,2 C 6,7 C 5,0 C 97 % 1007,1 hPa 0,0 l/m 0 min 0 min 112 W/m 6,4 km/h (2 Bft) 93,62 %
22.11.2019 10:12 6,2 C 6,7 C 5,0 C 97 % 1007,1 hPa 0,0 l/m 0 min 0 min 80 W/m 19,3 km/h (3 Bft) 97,87 %
22.11.2019 10:16 6,2 C 6,7 C 5,0 C 98 % 1007,1 hPa 0,0 l/m 0 min 0 min 79 W/m 12,9 km/h (3 Bft) 95,35 %
22.11.2019 10:18 6,3 C 6,7 C 5,0 C 98 % 1007,1 hPa 0,0 l/m 0 min 0 min 72 W/m 12,9 km/h (3 Bft) 95,74 %
22.11.2019 10:20 6,3 C 6,1 C 5,0 C 98 % 1007,1 hPa 0,0 l/m 0 min 0 min 69 W/m 16,1 km/h (3 Bft) 96,00 %
22.11.2019 10:22 6,3 C 6,1 C 5,0 C 98 % 1007,0 hPa 0,0 l/m 0 min 0 min 70 W/m 19,3 km/h (3 Bft) 97,87 %
22.11.2019 10:24 6,3 C 6,1 C 5,0 C 98 % 1007,0 hPa 0,0 l/m 0 min 0 min 74 W/m 19,3 km/h (3 Bft) 97,87 %
22.11.2019 10:26 6,3 C 6,7 C 5,0 C 98 % 1007,0 hPa 0,0 l/m 0 min 0 min 78 W/m 16,1 km/h (3 Bft) 97,67 %
22.11.2019 10:28 6,3 C 6,7 C 5,0 C 97 % 1007,0 hPa 0,0 l/m 0 min 0 min 95 W/m 12,9 km/h (3 Bft) 98,00 %
22.11.2019 10:30 6,3 C 6,7 C 5,0 C 97 % 1007,0 hPa 0,0 l/m 0 min 0 min 102 W/m 29,0 km/h (5 Bft) 97,87 %
22.11.2019 10:32 6,4 C 7,2 C 5,0 C 97 % 1006,9 hPa 0,0 l/m 2 min 0 min 136 W/m 16,1 km/h (3 Bft) 97,87 %
22.11.2019 10:34 6,4 C 7,8 C 5,6 C 97 % 1006,9 hPa 0,0 l/m 2 min 0 min 204 W/m 16,1 km/h (3 Bft) 97,73 %
22.11.2019 10:36 6,5 C 7,2 C 5,6 C 97 % 1006,9 hPa 0,0 l/m 2 min 0 min 155 W/m 25,7 km/h (4 Bft) 97,83 %
22.11.2019 10:38 6,5 C 7,2 C 5,6 C 97 % 1006,9 hPa 0,0 l/m 0 min 0 min 75 W/m 22,5 km/h (4 Bft) 95,74 %
22.11.2019 10:40 6,5 C 6,7 C 5,0 C 97 % 1006,9 hPa 0,0 l/m 0 min 0 min 64 W/m 22,5 km/h (4 Bft) 98,00 %
22.11.2019 10:42 6,5 C 6,7 C 5,0 C 97 % 1006,9 hPa 0,0 l/m 0 min 0 min 63 W/m 19,3 km/h (3 Bft) 100,00 %
22.11.2019 10:44 6,5 C 7,2 C 5,0 C 97 % 1006,9 hPa 0,0 l/m 2 min 0 min 187 W/m 22,5 km/h (4 Bft) 100,00 %
22.11.2019 10:46 6,6 C 7,8 C 5,6 C 97 % 1006,9 hPa 0,0 l/m 2 min 0 min 198 W/m 22,5 km/h (4 Bft) 97,73 %
22.11.2019 10:48 6,6 C 8,3 C 5,6 C 97 % 1006,9 hPa 0,0 l/m 2 min 0 min 174 W/m 19,3 km/h (3 Bft) 95,92 %
22.11.2019 10:50 6,7 C 7,8 C 5,6 C 97 % 1006,9 hPa 0,0 l/m 0 min 0 min 106 W/m 12,9 km/h (3 Bft) 100,00 %
22.11.2019 10:52 6,7 C 7,8 C 5,6 C 97 % 1006,9 hPa 0,0 l/m 2 min 0 min 175 W/m 22,5 km/h (4 Bft) 95,74 %
22.11.2019 10:54 6,7 C 8,9 C 5,6 C 97 % 1006,8 hPa 0,0 l/m 2 min 0 min 169 W/m 25,7 km/h (4 Bft) 95,45 %
22.11.2019 10:56 6,8 C 8,9 C 5,6 C 97 % 1006,7 hPa 0,0 l/m 2 min 0 min 206 W/m 19,3 km/h (3 Bft) 94,00 %
22.11.2019 10:58 6,9 C 8,9 C 5,6 C 97 % 1006,7 hPa 0,0 l/m 2 min 0 min 167 W/m 19,3 km/h (3 Bft) 95,74 %
22.11.2019 11:00 6,9 C 8,9 C 5,6 C 97 % 1006,7 hPa 0,0 l/m 2 min 0 min 149 W/m 19,3 km/h (3 Bft) 97,87 %
22.11.2019 11:02 6,9 C 8,9 C 5,6 C 97 % 1006,8 hPa 0,0 l/m 2 min 0 min 165 W/m 25,7 km/h (4 Bft) 95,35 %
22.11.2019 11:04 7,1 C 9,4 C 5,6 C 97 % 1006,7 hPa 0,0 l/m 2 min 0 min 189 W/m 16,1 km/h (3 Bft) 97,87 %
22.11.2019 11:06 7,1 C 9,4 C 5,6 C 97 % 1006,7 hPa 0,0 l/m 2 min 0 min 192 W/m 22,5 km/h (4 Bft) 96,00 %
22.11.2019 11:08 7,1 C 9,4 C 5,6 C 97 % 1006,7 hPa 0,0 l/m 2 min 0 min 171 W/m 25,7 km/h (4 Bft) 95,74 %
22.11.2019 11:10 7,2 C 9,4 C 5,6 C 97 % 1006,8 hPa 0,0 l/m 2 min 0 min 204 W/m 19,3 km/h (3 Bft) 97,87 %
22.11.2019 11:12 7,2 C 10,0 C 5,6 C 97 % 1006,7 hPa 0,0 l/m 2 min 0 min 232 W/m 22,5 km/h (4 Bft) 97,67 %
22.11.2019 11:14 7,3 C 10,0 C 5,6 C 97 % 1006,6 hPa 0,0 l/m 2 min 0 min 258 W/m 25,7 km/h (4 Bft) 98,00 %
22.11.2019 11:16 7,3 C 10,6 C 5,6 C 97 % 1006,6 hPa 0,0 l/m 2 min 0 min 238 W/m 19,3 km/h (3 Bft) 97,87 %
22.11.2019 11:18 7,4 C 10,6 C 6,1 C 97 % 1006,6 hPa 0,0 l/m 2 min 0 min 262 W/m 25,7 km/h (4 Bft) 97,87 %
22.11.2019 11:20 7,5 C 10,6 C 6,1 C 97 % 1006,5 hPa 0,0 l/m 2 min 0 min 228 W/m 19,3 km/h (3 Bft) 97,73 %
22.11.2019 11:22 7,6 C 10,0 C 6,1 C 97 % 1006,5 hPa 0,0 l/m 2 min 0 min 190 W/m 25,7 km/h (4 Bft) 97,96 %
22.11.2019 11:24 7,6 C 10,6 C 6,1 C 97 % 1006,5 hPa 0,0 l/m 2 min 0 min 236 W/m 16,1 km/h (3 Bft) 97,87 %
22.11.2019 11:26 7,7 C 10,6 C 6,1 C 96 % 1006,5 hPa 0,0 l/m 2 min 0 min 274 W/m 25,7 km/h (4 Bft) 100,00 %
22.11.2019 11:28 7,7 C 10,6 C 6,1 C 96 % 1006,5 hPa 0,0 l/m 2 min 0 min 238 W/m 19,3 km/h (3 Bft) 100,00 %
22.11.2019 11:30 7,8 C 10,6 C 6,1 C 96 % 1006,6 hPa 0,0 l/m 2 min 0 min 235 W/m 19,3 km/h (3 Bft) 100,00 %
22.11.2019 11:32 7,8 C 10,6 C 6,1 C 96 % 1006,5 hPa 0,0 l/m 2 min 0 min 248 W/m 19,3 km/h (3 Bft) 97,87 %
22.11.2019 11:34 7,9 C 10,6 C 6,1 C 96 % 1006,6 hPa 0,0 l/m 2 min 0 min 267 W/m 19,3 km/h (3 Bft) 100,00 %
22.11.2019 11:36 7,9 C 11,1 C 6,1 C 96 % 1006,5 hPa 0,0 l/m 2 min 0 min 276 W/m 12,9 km/h (3 Bft) 100,00 %
22.11.2019 11:38 8,0 C 10,6 C 6,1 C 96 % 1006,5 hPa 0,0 l/m 2 min 0 min 274 W/m 19,3 km/h (3 Bft) 100,00 %
22.11.2019 11:40 8,1 C 10,6 C 6,1 C 95 % 1006,4 hPa 0,0 l/m 2 min 0 min 260 W/m 19,3 km/h (3 Bft) 100,00 %
22.11.2019 11:42 8,1 C 10,6 C 6,1 C 95 % 1006,4 hPa 0,0 l/m 2 min 0 min 240 W/m 19,3 km/h (3 Bft) 95,74 %
22.11.2019 11:44 8,1 C 10,0 C 6,1 C 95 % 1006,4 hPa 0,0 l/m 2 min 0 min 244 W/m 25,7 km/h (4 Bft) 100,00 %
22.11.2019 11:46 8,1 C 10,0 C 6,1 C 95 % 1006,3 hPa 0,0 l/m 2 min 0 min 248 W/m 22,5 km/h (4 Bft) 100,00 %
22.11.2019 11:48 8,1 C 10,0 C 6,1 C 94 % 1006,3 hPa 0,0 l/m 2 min 0 min 192 W/m 16,1 km/h (3 Bft) 97,87 %
22.11.2019 11:50 8,2 C 10,0 C 6,1 C 94 % 1006,3 hPa 0,0 l/m 2 min 0 min 214 W/m 16,1 km/h (3 Bft) 97,87 %
22.11.2019 11:52 8,2 C 10,6 C 6,7 C 94 % 1006,3 hPa 0,0 l/m 2 min 0 min 293 W/m 25,7 km/h (4 Bft) 100,00 %
22.11.2019 11:54 8,2 C 10,6 C 6,1 C 94 % 1006,3 hPa 0,0 l/m 2 min 0 min 274 W/m 25,7 km/h (4 Bft) 100,00 %
22.11.2019 11:56 8,2 C 10,0 C 6,1 C 94 % 1006,3 hPa 0,0 l/m 2 min 0 min 237 W/m 25,7 km/h (4 Bft) 100,00 %
22.11.2019 11:58 8,2 C 10,0 C 6,1 C 93 % 1006,2 hPa 0,0 l/m 2 min 0 min 237 W/m 29,0 km/h (5 Bft) 100,00 %
22.11.2019 12:00 8,2 C 10,0 C 6,7 C 93 % 1006,2 hPa 0,0 l/m 2 min 0 min 259 W/m 29,0 km/h (5 Bft) 100,00 %
22.11.2019 12:02 8,3 C 10,6 C 6,7 C 93 % 1006,3 hPa 0,0 l/m 2 min 0 min 279 W/m 19,3 km/h (3 Bft) 100,00 %
22.11.2019 12:04 8,3 C 11,1 C 6,7 C 93 % 1006,2 hPa 0,0 l/m 2 min 0 min 330 W/m 22,5 km/h (4 Bft) 100,00 %
22.11.2019 12:08 8,4 C 11,7 C 6,7 C 92 % 1006,3 hPa 0,0 l/m 4 min 0 min 343 W/m 22,5 km/h (4 Bft) 97,87 %
22.11.2019 12:10 8,5 C 11,1 C 7,2 C 92 % 1006,2 hPa 0,0 l/m 2 min 0 min 291 W/m 25,7 km/h (4 Bft) 100,00 %
22.11.2019 12:12 8,5 C 10,6 C 7,2 C 92 % 1006,2 hPa 0,0 l/m 2 min 0 min 258 W/m 25,7 km/h (4 Bft) 98,00 %
22.11.2019 12:14 8,6 C 10,0 C 7,8 C 92 % 1006,1 hPa 0,0 l/m 2 min 0 min 236 W/m 35,4 km/h (5 Bft) 100,00 %
22.11.2019 12:16 8,6 C 10,6 C 7,2 C 91 % 1006,1 hPa 0,0 l/m 2 min 0 min 255 W/m 25,7 km/h (4 Bft) 95,74 %
22.11.2019 12:18 8,6 C 10,6 C 7,2 C 91 % 1006,1 hPa 0,0 l/m 2 min 0 min 280 W/m 25,7 km/h (4 Bft) 97,87 %
22.11.2019 12:20 8,6 C 11,1 C 7,2 C 91 % 1006,0 hPa 0,0 l/m 2 min 0 min 290 W/m 19,3 km/h (3 Bft) 93,62 %
22.11.2019 12:22 8,7 C 11,7 C 7,2 C 91 % 1006,0 hPa 0,0 l/m 2 min 0 min 311 W/m 22,5 km/h (4 Bft) 95,35 %
22.11.2019 12:24 8,7 C 12,2 C 7,2 C 91 % 1006,0 hPa 0,0 l/m 2 min 0 min 312 W/m 22,5 km/h (4 Bft) 96,00 %
22.11.2019 12:26 8,8 C 12,2 C 7,2 C 91 % 1006,0 hPa 0,0 l/m 2 min 0 min 310 W/m 19,3 km/h (3 Bft) 95,74 %
22.11.2019 12:28 8,8 C 11,7 C 7,2 C 91 % 1006,0 hPa 0,0 l/m 2 min 0 min 305 W/m 29,0 km/h (5 Bft) 97,87 %
22.11.2019 12:30 8,8 C 11,7 C 7,2 C 90 % 1006,0 hPa 0,0 l/m 2 min 0 min 259 W/m 22,5 km/h (4 Bft) 97,87 %
22.11.2019 12:32 8,9 C 11,1 C 7,2 C 90 % 1005,9 hPa 0,0 l/m 2 min 0 min 260 W/m 19,3 km/h (3 Bft) 97,87 %
22.11.2019 12:34 8,9 C 11,7 C 7,2 C 90 % 1005,9 hPa 0,0 l/m 2 min 0 min 288 W/m 19,3 km/h (3 Bft) 97,83 %
22.11.2019 12:36 9,1 C 12,2 C 7,2 C 90 % 1005,9 hPa 0,0 l/m 2 min 0 min 270 W/m 16,1 km/h (3 Bft) 97,73 %
22.11.2019 12:38 9,1 C 12,2 C 7,2 C 90 % 1005,9 hPa 0,0 l/m 2 min 0 min 276 W/m 22,5 km/h (4 Bft) 96,00 %
22.11.2019 12:40 9,1 C 11,7 C 7,2 C 90 % 1005,9 hPa 0,0 l/m 2 min 0 min 273 W/m 22,5 km/h (4 Bft) 97,87 %
22.11.2019 12:42 9,2 C 11,7 C 7,2 C 90 % 1006,0 hPa 0,0 l/m 2 min 0 min 262 W/m 25,7 km/h (4 Bft) 97,87 %
22.11.2019 12:44 9,2 C 12,2 C 7,2 C 90 % 1005,9 hPa 0,0 l/m 2 min 0 min 256 W/m 16,1 km/h (3 Bft) 97,87 %
22.11.2019 12:46 9,2 C 11,7 C 7,2 C 89 % 1005,9 hPa 0,0 l/m 2 min 0 min 245 W/m 22,5 km/h (4 Bft) 97,67 %
22.11.2019 12:48 9,3 C 11,7 C 7,2 C 90 % 1005,9 hPa 0,0 l/m 2 min 0 min 244 W/m 25,7 km/h (4 Bft) 96,00 %
22.11.2019 12:50 9,3 C 11,1 C 7,2 C 89 % 1005,9 hPa 0,0 l/m 2 min 0 min 253 W/m 22,5 km/h (4 Bft) 100,00 %
22.11.2019 12:52 9,3 C 11,1 C 7,2 C 89 % 1005,9 hPa 0,0 l/m 2 min 0 min 266 W/m 22,5 km/h (4 Bft) 100,00 %
22.11.2019 12:54 9,3 C 11,1 C 7,2 C 89 % 1005,9 hPa 0,0 l/m 2 min 0 min 236 W/m 22,5 km/h (4 Bft) 95,74 %
22.11.2019 12:56 9,3 C 11,7 C 7,2 C 88 % 1005,9 hPa 0,0 l/m 2 min 0 min 274 W/m 19,3 km/h (3 Bft) 95,35 %
22.11.2019 12:58 9,3 C 11,1 C 7,2 C 88 % 1005,8 hPa 0,0 l/m 2 min 0 min 275 W/m 29,0 km/h (5 Bft) 98,00 %
22.11.2019 13:00 9,3 C 11,1 C 7,2 C 88 % 1005,8 hPa 0,0 l/m 2 min 0 min 295 W/m 29,0 km/h (5 Bft) 95,74 %
22.11.2019 13:02 9,3 C 11,1 C 7,2 C 88 % 1005,8 hPa 0,0 l/m 2 min 0 min 269 W/m 25,7 km/h (4 Bft) 97,73 %
22.11.2019 13:04 9,2 C 11,1 C 7,2 C 88 % 1005,8 hPa 0,0 l/m 2 min 0 min 280 W/m 25,7 km/h (4 Bft) 96,00 %
22.11.2019 13:06 9,2 C 11,1 C 7,8 C 88 % 1005,8 hPa 0,0 l/m 2 min 0 min 299 W/m 29,0 km/h (5 Bft) 95,74 %
22.11.2019 13:08 9,2 C 11,1 C 7,8 C 88 % 1005,8 hPa 0,0 l/m 2 min 0 min 292 W/m 25,7 km/h (4 Bft) 95,74 %
22.11.2019 13:10 9,2 C 11,1 C 7,8 C 87 % 1005,8 hPa 0,0 l/m 2 min 0 min 290 W/m 29,0 km/h (5 Bft) 97,67 %
22.11.2019 13:12 9,2 C 10,0 C 7,8 C 87 % 1005,8 hPa 0,0 l/m 2 min 0 min 218 W/m 25,7 km/h (4 Bft) 98,00 %
22.11.2019 13:14 9,2 C 9,4 C 7,8 C 87 % 1005,8 hPa 0,0 l/m 2 min 0 min 169 W/m 25,7 km/h (4 Bft) 97,87 %
22.11.2019 13:16 9,1 C 9,4 C 7,8 C 87 % 1005,8 hPa 0,0 l/m 2 min 0 min 174 W/m 35,4 km/h (5 Bft) 95,74 %
22.11.2019 13:18 9,1 C 9,4 C 7,8 C 87 % 1005,8 hPa 0,0 l/m 2 min 0 min 200 W/m 29,0 km/h (5 Bft) 95,35 %
22.11.2019 13:20 9,0 C 10,0 C 7,8 C 87 % 1005,8 hPa 0,0 l/m 2 min 0 min 229 W/m 29,0 km/h (5 Bft) 96,00 %
22.11.2019 13:22 9,0 C 10,0 C 7,8 C 88 % 1005,8 hPa 0,0 l/m 2 min 0 min 176 W/m 32,2 km/h (5 Bft) 97,87 %
22.11.2019 13:24 8,9 C 9,4 C 7,8 C 88 % 1005,8 hPa 0,0 l/m 2 min 0 min 172 W/m 19,3 km/h (3 Bft) 95,74 %
22.11.2019 13:26 8,9 C 9,4 C 7,8 C 88 % 1005,8 hPa 0,0 l/m 2 min 0 min 181 W/m 22,5 km/h (4 Bft) 95,45 %
22.11.2019 13:28 8,9 C 9,4 C 7,8 C 88 % 1005,8 hPa 0,0 l/m 2 min 0 min 182 W/m 25,7 km/h (4 Bft) 95,74 %
22.11.2019 13:30 8,9 C 10,0 C 7,8 C 88 % 1005,8 hPa 0,0 l/m 2 min 0 min 209 W/m 16,1 km/h (3 Bft) 95,65 %
22.11.2019 13:32 8,9 C 10,0 C 7,8 C 88 % 1005,7 hPa 0,0 l/m 2 min 0 min 243 W/m 29,0 km/h (5 Bft) 97,87 %
22.11.2019 13:34 8,9 C 10,6 C 7,8 C 88 % 1005,7 hPa 0,0 l/m 2 min 0 min 256 W/m 22,5 km/h (4 Bft) 97,87 %
22.11.2019 13:36 8,9 C 10,6 C 7,8 C 88 % 1005,7 hPa 0,0 l/m 2 min 0 min 258 W/m 25,7 km/h (4 Bft) 95,74 %
22.11.2019 13:38 8,9 C 10,6 C 7,8 C 88 % 1005,7 hPa 0,0 l/m 2 min 0 min 264 W/m 29,0 km/h (5 Bft) 98,00 %
22.11.2019 13:40 8,9 C 10,6 C 7,8 C 88 % 1005,7 hPa 0,0 l/m 2 min 0 min 229 W/m 22,5 km/h (4 Bft) 97,83 %
22.11.2019 13:42 8,9 C 10,6 C 7,8 C 88 % 1005,7 hPa 0,0 l/m 2 min 0 min 235 W/m 29,0 km/h (5 Bft) 97,87 %
22.11.2019 13:44 8,9 C 10,6 C 7,8 C 88 % 1005,7 hPa 0,0 l/m 2 min 0 min 237 W/m 22,5 km/h (4 Bft) 97,87 %
22.11.2019 13:46 8,9 C 10,6 C 7,8 C 88 % 1005,6 hPa 0,0 l/m 2 min 0 min 229 W/m 38,6 km/h (5 Bft) 95,74 %
22.11.2019 13:48 8,9 C 10,6 C 7,8 C 88 % 1005,7 hPa 0,0 l/m 2 min 0 min 214 W/m 22,5 km/h (4 Bft) 97,87 %
22.11.2019 13:50 8,9 C 10,0 C 7,8 C 88 % 1005,6 hPa 0,0 l/m 2 min 0 min 200 W/m 29,0 km/h (5 Bft) 97,87 %
22.11.2019 13:52 8,9 C 10,0 C 7,8 C 88 % 1005,7 hPa 0,0 l/m 2 min 0 min 192 W/m 25,7 km/h (4 Bft) 95,65 %
22.11.2019 13:54 9,0 C 10,0 C 7,8 C 88 % 1005,6 hPa 0,0 l/m 2 min 0 min 193 W/m 22,5 km/h (4 Bft) 97,87 %
22.11.2019 13:56 9,0 C 10,0 C 7,8 C 88 % 1005,6 hPa 0,0 l/m 2 min 0 min 167 W/m 19,3 km/h (3 Bft) 97,87 %
22.11.2019 13:58 9,0 C 10,0 C 7,8 C 88 % 1005,6 hPa 0,0 l/m 2 min 0 min 162 W/m 19,3 km/h (3 Bft) 95,74 %
22.11.2019 14:00 9,0 C 10,0 C 7,8 C 88 % 1005,6 hPa 0,0 l/m 2 min 0 min 176 W/m 29,0 km/h (5 Bft) 97,87 %
22.11.2019 14:02 9,0 C 10,0 C 7,8 C 88 % 1005,6 hPa 0,0 l/m 2 min 0 min 170 W/m 32,2 km/h (5 Bft) 97,87 %
22.11.2019 14:04 9,0 C 10,0 C 7,8 C 88 % 1005,6 hPa 0,0 l/m 2 min 0 min 170 W/m 22,5 km/h (4 Bft) 97,83 %
22.11.2019 14:06 9,0 C 10,0 C 7,8 C 87 % 1005,6 hPa 0,0 l/m 2 min 0 min 189 W/m 16,1 km/h (3 Bft) 97,87 %
22.11.2019 14:08 8,9 C 10,0 C 7,8 C 87 % 1005,5 hPa 0,0 l/m 2 min 0 min 201 W/m 25,7 km/h (4 Bft) 97,87 %
22.11.2019 14:10 9,0 C 10,0 C 7,8 C 87 % 1005,4 hPa 0,0 l/m 2 min 0 min 196 W/m 29,0 km/h (5 Bft) 97,87 %
22.11.2019 14:12 9,0 C 10,0 C 7,8 C 87 % 1005,5 hPa 0,0 l/m 2 min 0 min 198 W/m 22,5 km/h (4 Bft) 97,87 %
22.11.2019 14:14 9,0 C 10,6 C 7,8 C 88 % 1005,5 hPa 0,0 l/m 2 min 0 min 204 W/m 22,5 km/h (4 Bft) 100,00 %
22.11.2019 14:16 9,0 C 10,6 C 7,8 C 88 % 1005,5 hPa 0,0 l/m 2 min 0 min 206 W/m 19,3 km/h (3 Bft) 97,87 %
22.11.2019 14:18 9,1 C 10,6 C 7,8 C 88 % 1005,5 hPa 0,0 l/m 2 min 0 min 191 W/m 22,5 km/h (4 Bft) 100,00 %
22.11.2019 14:20 9,0 C 10,0 C 7,8 C 88 % 1005,4 hPa 0,0 l/m 2 min 0 min 197 W/m 22,5 km/h (4 Bft) 97,87 %
22.11.2019 14:22 9,0 C 10,6 C 7,8 C 88 % 1005,5 hPa 0,0 l/m 2 min 0 min 183 W/m 22,5 km/h (4 Bft) 100,00 %
22.11.2019 14:24 9,0 C 10,0 C 7,8 C 88 % 1005,4 hPa 0,0 l/m 2 min 0 min 188 W/m 19,3 km/h (3 Bft) 100,00 %
22.11.2019 14:26 9,0 C 9,4 C 7,2 C 88 % 1005,5 hPa 0,0 l/m 2 min 0 min 177 W/m 25,7 km/h (4 Bft) 100,00 %
22.11.2019 14:28 8,9 C 9,4 C 7,2 C 87 % 1005,5 hPa 0,0 l/m 2 min 0 min 148 W/m 22,5 km/h (4 Bft) 100,00 %
22.11.2019 14:30 8,9 C 8,9 C 7,2 C 87 % 1005,5 hPa 0,0 l/m 2 min 0 min 141 W/m 29,0 km/h (5 Bft) 100,00 %
22.11.2019 14:32 8,8 C 8,9 C 7,2 C 87 % 1005,6 hPa 0,0 l/m 2 min 0 min 131 W/m 25,7 km/h (4 Bft) 100,00 %
22.11.2019 14:34 8,8 C 8,9 C 7,2 C 87 % 1005,5 hPa 0,0 l/m 2 min 0 min 126 W/m 12,9 km/h (3 Bft) 100,00 %
22.11.2019 14:36 8,8 C 8,9 C 7,2 C 87 % 1005,5 hPa 0,0 l/m 2 min 0 min 119 W/m 22,5 km/h (4 Bft) 100,00 %
22.11.2019 14:38 8,7 C 8,9 C 7,2 C 87 % 1005,5 hPa 0,0 l/m 2 min 0 min 116 W/m 22,5 km/h (4 Bft) 97,83 %
22.11.2019 14:40 8,7 C 8,3 C 7,2 C 87 % 1005,5 hPa 0,0 l/m 2 min 0 min 112 W/m 25,7 km/h (4 Bft) 97,87 %
22.11.2019 14:42 8,6 C 8,3 C 7,2 C 88 % 1005,5 hPa 0,0 l/m 2 min 0 min 110 W/m 25,7 km/h (4 Bft) 100,00 %
22.11.2019 14:44 8,6 C 7,8 C 6,7 C 88 % 1005,5 hPa 0,0 l/m 0 min 0 min 101 W/m 29,0 km/h (5 Bft) 97,87 %
22.11.2019 14:46 8,4 C 7,8 C 6,7 C 88 % 1005,4 hPa 0,0 l/m 0 min 0 min 100 W/m 29,0 km/h (5 Bft) 97,87 %
22.11.2019 14:48 8,4 C 7,8 C 6,7 C 88 % 1005,5 hPa 0,0 l/m 0 min 0 min 98 W/m 41,8 km/h (6 Bft) 95,74 %
22.11.2019 14:50 8,3 C 7,8 C 6,7 C 88 % 1005,4 hPa 0,0 l/m 0 min 0 min 94 W/m 41,8 km/h (6 Bft) 97,83 %
22.11.2019 14:52 8,3 C 7,8 C 6,7 C 88 % 1005,5 hPa 0,0 l/m 0 min 0 min 84 W/m 22,5 km/h (4 Bft) 95,74 %
22.11.2019 14:54 8,3 C 7,8 C 6,7 C 88 % 1005,5 hPa 0,0 l/m 0 min 0 min 81 W/m 22,5 km/h (4 Bft) 97,87 %
22.11.2019 14:56 8,2 C 7,8 C 6,7 C 88 % 1005,4 hPa 0,0 l/m 0 min 0 min 81 W/m 22,5 km/h (4 Bft) 97,87 %
22.11.2019 14:58 8,2 C 7,8 C 6,7 C 88 % 1005,4 hPa 0,0 l/m 0 min 0 min 79 W/m 25,7 km/h (4 Bft) 97,87 %
22.11.2019 15:00 8,1 C 7,2 C 6,7 C 88 % 1005,4 hPa 0,0 l/m 0 min 0 min 77 W/m 38,6 km/h (5 Bft) 97,87 %
22.11.2019 15:02 8,1 C 7,2 C 6,7 C 88 % 1005,4 hPa 0,0 l/m 0 min 0 min 77 W/m 29,0 km/h (5 Bft) 97,83 %
22.11.2019 15:04 8,1 C 7,2 C 6,7 C 88 % 1005,5 hPa 0,0 l/m 0 min 0 min 76 W/m 22,5 km/h (4 Bft) 97,87 %
22.11.2019 15:06 8,0 C 7,2 C 6,7 C 88 % 1005,5 hPa 0,0 l/m 0 min 0 min 76 W/m 32,2 km/h (5 Bft) 97,87 %
22.11.2019 15:08 7,9 C 7,2 C 6,7 C 88 % 1005,5 hPa 0,0 l/m 0 min 0 min 73 W/m 25,7 km/h (4 Bft) 97,87 %
22.11.2019 15:10 7,9 C 7,2 C 6,7 C 89 % 1005,5 hPa 0,0 l/m 0 min 0 min 71 W/m 22,5 km/h (4 Bft) 97,87 %
22.11.2019 15:12 7,9 C 7,2 C 6,7 C 89 % 1005,5 hPa 0,0 l/m 0 min 0 min 70 W/m 19,3 km/h (3 Bft) 97,83 %
22.11.2019 15:14 7,9 C 7,2 C 6,7 C 89 % 1005,5 hPa 0,0 l/m 0 min 0 min 69 W/m 25,7 km/h (4 Bft) 97,87 %
22.11.2019 15:16 7,8 C 7,2 C 6,7 C 89 % 1005,5 hPa 0,0 l/m 0 min 0 min 69 W/m 29,0 km/h (5 Bft) 97,87 %
22.11.2019 15:18 7,8 C 7,2 C 6,7 C 89 % 1005,5 hPa 0,0 l/m 0 min 0 min 69 W/m 22,5 km/h (4 Bft) 95,74 %
22.11.2019 15:20 7,8 C 7,2 C 6,7 C 89 % 1005,5 hPa 0,0 l/m 0 min 0 min 69 W/m 22,5 km/h (4 Bft) 93,62 %
22.11.2019 15:22 7,8 C 7,2 C 6,7 C 89 % 1005,5 hPa 0,0 l/m 0 min 0 min 69 W/m 22,5 km/h (4 Bft) 95,74 %
22.11.2019 15:24 7,7 C 7,2 C 6,7 C 89 % 1005,5 hPa 0,0 l/m 0 min 0 min 69 W/m 22,5 km/h (4 Bft) 93,48 %
22.11.2019 15:26 7,7 C 7,2 C 6,7 C 89 % 1005,5 hPa 0,0 l/m 2 min 0 min 69 W/m 25,7 km/h (4 Bft) 95,74 %
22.11.2019 15:28 7,7 C 7,2 C 6,1 C 89 % 1005,5 hPa 0,0 l/m 2 min 0 min 70 W/m 22,5 km/h (4 Bft) 97,87 %
22.11.2019 15:30 7,7 C 7,2 C 6,7 C 89 % 1005,5 hPa 0,0 l/m 2 min 0 min 73 W/m 29,0 km/h (5 Bft) 95,74 %
22.11.2019 15:32 7,7 C 7,2 C 6,7 C 89 % 1005,5 hPa 0,0 l/m 2 min 0 min 66 W/m 29,0 km/h (5 Bft) 97,87 %
22.11.2019 15:34 7,6 C 7,2 C 6,1 C 89 % 1005,5 hPa 0,0 l/m 0 min 0 min 60 W/m 19,3 km/h (3 Bft) 97,87 %
22.11.2019 15:36 7,6 C 7,2 C 6,1 C 89 % 1005,4 hPa 0,0 l/m 0 min 0 min 55 W/m 22,5 km/h (4 Bft) 95,65 %
22.11.2019 15:38 7,6 C 7,2 C 6,1 C 89 % 1005,4 hPa 0,0 l/m 0 min 0 min 52 W/m 19,3 km/h (3 Bft) 97,87 %
22.11.2019 15:40 7,6 C 7,2 C 6,1 C 89 % 1005,4 hPa 0,0 l/m 0 min 0 min 50 W/m 19,3 km/h (3 Bft) 95,74 %
22.11.2019 15:42 7,6 C 6,7 C 6,1 C 89 % 1005,4 hPa 0,0 l/m 0 min 0 min 47 W/m 29,0 km/h (5 Bft) 97,87 %
22.11.2019 15:44 7,6 C 6,7 C 6,1 C 89 % 1005,4 hPa 0,0 l/m 0 min 0 min 45 W/m 32,2 km/h (5 Bft) 97,87 %
22.11.2019 15:46 7,5 C 6,7 C 6,1 C 89 % 1005,4 hPa 0,0 l/m 0 min 0 min 43 W/m 29,0 km/h (5 Bft) 97,87 %
22.11.2019 15:48 7,5 C 6,7 C 6,1 C 89 % 1005,3 hPa 0,0 l/m 0 min 0 min 40 W/m 29,0 km/h (5 Bft) 97,83 %
22.11.2019 15:50 7,4 C 6,7 C 6,1 C 90 % 1005,3 hPa 0,0 l/m 0 min 0 min 39 W/m 29,0 km/h (5 Bft) 95,74 %
22.11.2019 15:52 7,4 C 6,7 C 6,1 C 90 % 1005,3 hPa 0,0 l/m 0 min 0 min 37 W/m 29,0 km/h (5 Bft) 95,74 %
22.11.2019 15:54 7,4 C 6,7 C 6,1 C 90 % 1005,2 hPa 0,0 l/m 0 min 0 min 35 W/m 29,0 km/h (5 Bft) 95,74 %
22.11.2019 15:56 7,4 C 6,7 C 6,1 C 90 % 1005,2 hPa 0,0 l/m 0 min 0 min 34 W/m 22,5 km/h (4 Bft) 76,60 %
22.11.2019 15:58 7,4 C 6,7 C 6,1 C 90 % 1005,3 hPa 0,0 l/m 0 min 0 min 33 W/m 12,9 km/h (3 Bft) 75,00 %
22.11.2019 16:00 7,4 C 6,7 C 6,1 C 90 % 1005,3 hPa 0,0 l/m 0 min 0 min 32 W/m 25,7 km/h (4 Bft) 93,48 %
22.11.2019 16:02 7,4 C 6,7 C 6,1 C 90 % 1005,2 hPa 0,0 l/m 0 min 0 min 32 W/m 16,1 km/h (3 Bft) 93,62 %
22.11.2019 16:04 7,3 C 6,7 C 6,1 C 90 % 1005,2 hPa 0,0 l/m 2 min 0 min 33 W/m 25,7 km/h (4 Bft) 95,74 %
22.11.2019 16:06 7,3 C 6,7 C 6,1 C 90 % 1005,3 hPa 0,0 l/m 2 min 0 min 30 W/m 38,6 km/h (5 Bft) 97,87 %
22.11.2019 16:08 7,3 C 6,7 C 6,1 C 90 % 1005,2 hPa 0,0 l/m 2 min 0 min 26 W/m 22,5 km/h (4 Bft) 93,62 %
22.11.2019 16:10 7,3 C 6,7 C 6,1 C 90 % 1005,3 hPa 0,0 l/m 0 min 0 min 23 W/m 29,0 km/h (5 Bft) 95,74 %
22.11.2019 16:12 7,2 C 6,7 C 5,6 C 90 % 1005,3 hPa 0,0 l/m 0 min 0 min 20 W/m 25,7 km/h (4 Bft) 97,83 %
22.11.2019 16:14 7,2 C 6,7 C 5,6 C 90 % 1005,3 hPa 0,0 l/m 0 min 0 min 18 W/m 25,7 km/h (4 Bft) 97,87 %
22.11.2019 16:16 7,2 C 6,1 C 5,6 C 90 % 1005,2 hPa 0,0 l/m 0 min 0 min 17 W/m 19,3 km/h (3 Bft) 97,87 %
22.11.2019 16:18 7,2 C 6,1 C 5,6 C 90 % 1005,2 hPa 0,0 l/m 0 min 0 min 16 W/m 35,4 km/h (5 Bft) 93,62 %
22.11.2019 16:20 7,2 C 6,1 C 5,6 C 90 % 1005,2 hPa 0,0 l/m 0 min 0 min 15 W/m 19,3 km/h (3 Bft) 97,87 %
22.11.2019 16:22 7,1 C 6,1 C 5,6 C 90 % 1005,1 hPa 0,0 l/m 0 min 0 min 14 W/m 38,6 km/h (5 Bft) 97,83 %
22.11.2019 16:24 7,1 C 6,1 C 5,6 C 90 % 1005,1 hPa 0,0 l/m 0 min 0 min 12 W/m 38,6 km/h (5 Bft) 97,87 %
22.11.2019 16:26 7,1 C 6,1 C 5,6 C 90 % 1005,1 hPa 0,0 l/m 0 min 0 min 12 W/m 25,7 km/h (4 Bft) 97,87 %
22.11.2019 16:28 7,1 C 6,1 C 5,6 C 90 % 1005,1 hPa 0,0 l/m 0 min 0 min 10 W/m 35,4 km/h (5 Bft) 97,87 %
22.11.2019 16:30 7,0 C 6,1 C 5,6 C 90 % 1005,1 hPa 0,0 l/m 0 min 0 min 8 W/m 25,7 km/h (4 Bft) 95,74 %
22.11.2019 16:32 7,0 C 6,1 C 5,6 C 90 % 1005,0 hPa 0,0 l/m 0 min 0 min 6 W/m 38,6 km/h (5 Bft) 97,87 %
22.11.2019 16:34 6,9 C 6,1 C 5,6 C 90 % 1005,1 hPa 0,0 l/m 0 min 0 min 5 W/m 35,4 km/h (5 Bft) 97,83 %
22.11.2019 16:36 6,9 C 6,1 C 5,6 C 90 % 1005,0 hPa 0,0 l/m 0 min 0 min 0 W/m 29,0 km/h (5 Bft) 97,87 %
22.11.2019 16:38 6,9 C 6,1 C 5,6 C 90 % 1005,0 hPa 0,0 l/m 0 min 0 min 0 W/m 35,4 km/h (5 Bft) 95,74 %
22.11.2019 16:40 6,9 C 6,1 C 5,6 C 90 % 1005,0 hPa 0,0 l/m 0 min 0 min 0 W/m 22,5 km/h (4 Bft) 97,87 %
22.11.2019 16:42 6,9 C 6,1 C 5,6 C 90 % 1005,0 hPa 0,0 l/m 0 min 0 min 0 W/m 22,5 km/h (4 Bft) 95,74 %
22.11.2019 16:44 6,8 C 6,1 C 5,0 C 90 % 1005,0 hPa 0,0 l/m 0 min 0 min 0 W/m 19,3 km/h (3 Bft) 95,74 %
22.11.2019 16:46 6,8 C 5,6 C 5,0 C 90 % 1005,0 hPa 0,0 l/m 0 min 0 min 0 W/m 16,1 km/h (3 Bft) 97,83 %
22.11.2019 16:48 6,8 C 5,6 C 5,0 C 90 % 1004,9 hPa 0,0 l/m 0 min 0 min 0 W/m 19,3 km/h (3 Bft) 100,00 %
22.11.2019 16:50 6,8 C 5,6 C 5,0 C 90 % 1005,0 hPa 0,0 l/m 0 min 0 min 0 W/m 12,9 km/h (3 Bft) 100,00 %
22.11.2019 16:52 6,7 C 5,6 C 5,0 C 91 % 1004,9 hPa 0,0 l/m 0 min 0 min 0 W/m 22,5 km/h (4 Bft) 100,00 %
22.11.2019 16:54 6,7 C 5,6 C 5,0 C 90 % 1005,0 hPa 0,0 l/m 0 min 0 min 0 W/m 19,3 km/h (3 Bft) 100,00 %
22.11.2019 16:56 6,7 C 5,6 C 5,0 C 91 % 1004,9 hPa 0,0 l/m 0 min 0 min 0 W/m 22,5 km/h (4 Bft) 100,00 %
22.11.2019 16:58 6,7 C 5,6 C 5,0 C 91 % 1004,9 hPa 0,0 l/m 0 min 0 min 0 W/m 19,3 km/h (3 Bft) 100,00 %
22.11.2019 17:00 6,6 C 5,6 C 5,0 C 91 % 1004,9 hPa 0,0 l/m 0 min 0 min 0 W/m 19,3 km/h (3 Bft) 100,00 %
22.11.2019 17:02 6,6 C 5,6 C 5,0 C 91 % 1004,9 hPa 0,0 l/m 0 min 0 min 0 W/m 22,5 km/h (4 Bft) 100,00 %
22.11.2019 17:04 6,6 C 5,6 C 5,0 C 91 % 1004,8 hPa 0,0 l/m 0 min 0 min 0 W/m 25,7 km/h (4 Bft) 100,00 %
22.11.2019 17:06 6,6 C 5,6 C 5,0 C 91 % 1004,8 hPa 0,0 l/m 0 min 0 min 0 W/m 32,2 km/h (5 Bft) 100,00 %
22.11.2019 17:08 6,6 C 5,6 C 5,0 C 91 % 1004,8 hPa 0,0 l/m 0 min 0 min 0 W/m 22,5 km/h (4 Bft) 97,83 %
22.11.2019 17:10 6,5 C 5,6 C 5,0 C 91 % 1004,8 hPa 0,0 l/m 0 min 0 min 0 W/m 22,5 km/h (4 Bft) 100,00 %
22.11.2019 17:12 6,5 C 5,6 C 5,0 C 91 % 1004,9 hPa 0,0 l/m 0 min 0 min 0 W/m 25,7 km/h (4 Bft) 100,00 %
22.11.2019 17:14 6,5 C 5,6 C 5,0 C 91 % 1004,8 hPa 0,0 l/m 0 min 0 min 0 W/m 35,4 km/h (5 Bft) 97,87 %
22.11.2019 17:16 6,5 C 5,6 C 5,0 C 91 % 1004,9 hPa 0,0 l/m 0 min 0 min 0 W/m 22,5 km/h (4 Bft) 100,00 %
22.11.2019 17:18 6,4 C 5,6 C 5,0 C 91 % 1004,9 hPa 0,0 l/m 0 min 0 min 0 W/m 22,5 km/h (4 Bft) 100,00 %
22.11.2019 17:20 6,4 C 5,6 C 5,0 C 91 % 1004,9 hPa 0,0 l/m 0 min 0 min 0 W/m 19,3 km/h (3 Bft) 100,00 %
22.11.2019 17:22 6,4 C 5,6 C 5,0 C 91 % 1004,9 hPa 0,0 l/m 0 min 0 min 0 W/m 29,0 km/h (5 Bft) 100,00 %
22.11.2019 17:24 6,4 C 5,6 C 5,0 C 91 % 1004,9 hPa 0,0 l/m 0 min 0 min 0 W/m 29,0 km/h (5 Bft) 100,00 %
22.11.2019 17:26 6,4 C 5,6 C 5,0 C 91 % 1004,9 hPa 0,0 l/m 0 min 0 min 0 W/m 25,7 km/h (4 Bft) 100,00 %
22.11.2019 17:28 6,4 C 5,6 C 5,0 C 91 % 1004,8 hPa 0,0 l/m 0 min 0 min 0 W/m 38,6 km/h (5 Bft) 100,00 %
22.11.2019 17:30 6,4 C 5,6 C 5,0 C 91 % 1004,9 hPa 0,0 l/m 0 min 0 min 0 W/m 29,0 km/h (5 Bft) 100,00 %
22.11.2019 17:32 6,3 C 5,6 C 5,0 C 91 % 1004,9 hPa 0,0 l/m 0 min 0 min 0 W/m 29,0 km/h (5 Bft) 100,00 %
22.11.2019 17:34 6,3 C 5,6 C 5,0 C 91 % 1005,0 hPa 0,0 l/m 0 min 0 min 0 W/m 25,7 km/h (4 Bft) 100,00 %
22.11.2019 17:36 6,3 C 5,6 C 5,0 C 91 % 1005,0 hPa 0,0 l/m 0 min 0 min 0 W/m 25,7 km/h (4 Bft) 100,00 %
22.11.2019 17:38 6,3 C 5,6 C 5,0 C 91 % 1005,0 hPa 0,0 l/m 0 min 0 min 0 W/m 25,7 km/h (4 Bft) 100,00 %
22.11.2019 17:40 6,3 C 5,6 C 5,0 C 91 % 1005,0 hPa 0,0 l/m 0 min 0 min 0 W/m 22,5 km/h (4 Bft) 100,00 %
22.11.2019 17:42 6,3 C 5,6 C 5,0 C 91 % 1005,0 hPa 0,0 l/m 0 min 0 min 0 W/m 16,1 km/h (3 Bft) 100,00 %
22.11.2019 17:44 6,3 C 5,6 C 4,4 C 91 % 1005,0 hPa 0,0 l/m 0 min 0 min 0 W/m 19,3 km/h (3 Bft) 100,00 %
22.11.2019 17:46 6,3 C 5,6 C 4,4 C 91 % 1005,0 hPa 0,0 l/m 0 min 0 min 0 W/m 22,5 km/h (4 Bft) 100,00 %
22.11.2019 17:48 6,2 C 5,6 C 4,4 C 91 % 1005,1 hPa 0,0 l/m 0 min 0 min 0 W/m 25,7 km/h (4 Bft) 100,00 %
22.11.2019 17:50 6,2 C 5,0 C 4,4 C 91 % 1005,0 hPa 0,0 l/m 0 min 0 min 0 W/m 19,3 km/h (3 Bft) 100,00 %
22.11.2019 17:52 6,2 C 5,0 C 4,4 C 91 % 1005,0 hPa 0,0 l/m 0 min 0 min 0 W/m 29,0 km/h (5 Bft) 100,00 %
22.11.2019 17:54 6,2 C 5,6 C 4,4 C 91 % 1005,0 hPa 0,0 l/m 0 min 0 min 0 W/m 38,6 km/h (5 Bft) 100,00 %
22.11.2019 17:56 6,2 C 5,6 C 4,4 C 91 % 1005,0 hPa 0,0 l/m 0 min 0 min 0 W/m 22,5 km/h (4 Bft) 100,00 %
22.11.2019 17:58 6,1 C 5,0 C 4,4 C 91 % 1004,9 hPa 0,0 l/m 0 min 0 min 0 W/m 16,1 km/h (3 Bft) 97,87 %
22.11.2019 18:00 6,1 C 5,0 C 4,4 C 91 % 1004,9 hPa 0,0 l/m 0 min 0 min 0 W/m 16,1 km/h (3 Bft) 97,83 %
22.11.2019 18:02 6,1 C 5,0 C 4,4 C 91 % 1004,9 hPa 0,0 l/m 0 min 0 min 0 W/m 19,3 km/h (3 Bft) 95,74 %
22.11.2019 18:04 6,1 C 5,0 C 4,4 C 91 % 1004,9 hPa 0,0 l/m 0 min 0 min 0 W/m 19,3 km/h (3 Bft) 95,74 %
22.11.2019 18:08 6,1 C 5,0 C 4,4 C 92 % 1005,0 hPa 0,0 l/m 0 min 0 min 0 W/m 16,1 km/h (3 Bft) 95,74 %
22.11.2019 18:10 6,0 C 5,0 C 4,4 C 92 % 1005,0 hPa 0,0 l/m 0 min 0 min 0 W/m 22,5 km/h (4 Bft) 95,74 %
22.11.2019 18:12 6,0 C 5,0 C 4,4 C 92 % 1005,0 hPa 0,0 l/m 0 min 0 min 0 W/m 19,3 km/h (3 Bft) 93,48 %
22.11.2019 18:14 5,9 C 5,0 C 4,4 C 92 % 1005,0 hPa 0,0 l/m 0 min 0 min 0 W/m 22,5 km/h (4 Bft) 95,74 %
22.11.2019 18:16 5,9 C 5,0 C 4,4 C 92 % 1004,9 hPa 0,0 l/m 0 min 0 min 0 W/m 19,3 km/h (3 Bft) 93,62 %
22.11.2019 18:18 5,9 C 5,0 C 4,4 C 92 % 1004,9 hPa 0,0 l/m 0 min 0 min 0 W/m 19,3 km/h (3 Bft) 95,74 %
22.11.2019 18:20 5,9 C 5,0 C 4,4 C 92 % 1005,0 hPa 0,0 l/m 0 min 0 min 0 W/m 19,3 km/h (3 Bft) 95,74 %
22.11.2019 18:22 5,9 C 5,0 C 4,4 C 92 % 1004,9 hPa 0,0 l/m 0 min 0 min 0 W/m 22,5 km/h (4 Bft) 95,74 %
22.11.2019 18:24 5,8 C 5,0 C 4,4 C 92 % 1005,0 hPa 0,0 l/m 0 min 0 min 0 W/m 12,9 km/h (3 Bft) 95,65 %
22.11.2019 18:26 5,8 C 5,0 C 4,4 C 92 % 1005,0 hPa 0,0 l/m 0 min 0 min 0 W/m 22,5 km/h (4 Bft) 95,74 %
22.11.2019 18:28 5,8 C 5,0 C 4,4 C 92 % 1005,0 hPa 0,0 l/m 0 min 0 min 0 W/m 19,3 km/h (3 Bft) 93,62 %
22.11.2019 18:30 5,8 C 5,0 C 4,4 C 92 % 1005,0 hPa 0,0 l/m 0 min 0 min 0 W/m 19,3 km/h (3 Bft) 91,49 %
22.11.2019 18:32 5,8 C 5,0 C 3,9 C 92 % 1005,1 hPa 0,0 l/m 0 min 0 min 0 W/m 22,5 km/h (4 Bft) 95,74 %
22.11.2019 18:34 5,7 C 5,0 C 3,9 C 92 % 1005,1 hPa 0,0 l/m 0 min 0 min 0 W/m 19,3 km/h (3 Bft) 93,48 %
22.11.2019 18:36 5,7 C 5,0 C 3,9 C 92 % 1005,0 hPa 0,0 l/m 0 min 0 min 0 W/m 19,3 km/h (3 Bft) 93,62 %
22.11.2019 18:38 5,7 C 4,4 C 3,9 C 92 % 1004,9 hPa 0,0 l/m 0 min 0 min 0 W/m 16,1 km/h (3 Bft) 93,62 %
22.11.2019 18:40 5,7 C 4,4 C 3,9 C 92 % 1005,1 hPa 0,0 l/m 0 min 0 min 0 W/m 12,9 km/h (3 Bft) 95,74 %
22.11.2019 18:42 5,6 C 4,4 C 3,9 C 92 % 1005,0 hPa 0,0 l/m 0 min 0 min 0 W/m 12,9 km/h (3 Bft) 95,74 %
22.11.2019 18:44 5,6 C 4,4 C 3,9 C 92 % 1005,0 hPa 0,0 l/m 0 min 0 min 0 W/m 19,3 km/h (3 Bft) 93,62 %
22.11.2019 18:46 5,6 C 4,4 C 3,9 C 92 % 1005,0 hPa 0,0 l/m 0 min 0 min 0 W/m 19,3 km/h (3 Bft) 93,48 %
22.11.2019 18:48 5,6 C 4,4 C 3,9 C 92 % 1005,0 hPa 0,0 l/m 0 min 0 min 0 W/m 16,1 km/h (3 Bft) 87,23 %
22.11.2019 18:50 5,6 C 4,4 C 3,9 C 92 % 1005,0 hPa 0,0 l/m 0 min 0 min 0 W/m 19,3 km/h (3 Bft) 93,62 %
22.11.2019 18:52 5,5 C 4,4 C 3,9 C 92 % 1005,0 hPa 0,0 l/m 0 min 0 min 0 W/m 12,9 km/h (3 Bft) 93,62 %
22.11.2019 18:54 5,5 C 4,4 C 3,9 C 92 % 1004,9 hPa 0,0 l/m 0 min 0 min 0 W/m 22,5 km/h (4 Bft) 93,62 %
22.11.2019 18:56 5,4 C 4,4 C 3,9 C 93 % 1004,9 hPa 0,0 l/m 0 min 0 min 0 W/m 25,7 km/h (4 Bft) 95,74 %
22.11.2019 18:58 5,4 C 4,4 C 3,9 C 93 % 1004,9 hPa 0,0 l/m 0 min 0 min 0 W/m 22,5 km/h (4 Bft) 97,83 %
22.11.2019 19:00 5,4 C 4,4 C 3,9 C 93 % 1004,8 hPa 0,0 l/m 0 min 0 min 0 W/m 22,5 km/h (4 Bft) 93,62 %
22.11.2019 19:02 5,3 C 4,4 C 3,9 C 93 % 1004,8 hPa 0,0 l/m 0 min 0 min 0 W/m 22,5 km/h (4 Bft) 97,87 %
22.11.2019 19:04 5,3 C 4,4 C 3,9 C 93 % 1004,8 hPa 0,0 l/m 0 min 0 min 0 W/m 25,7 km/h (4 Bft) 97,87 %
22.11.2019 19:06 5,3 C 4,4 C 3,9 C 93 % 1004,8 hPa 0,0 l/m 0 min 0 min 0 W/m 25,7 km/h (4 Bft) 97,87 %
22.11.2019 19:08 5,3 C 4,4 C 3,9 C 93 % 1004,8 hPa 0,0 l/m 0 min 0 min 0 W/m 22,5 km/h (4 Bft) 95,74 %
22.11.2019 19:10 5,3 C 4,4 C 3,9 C 93 % 1004,7 hPa 0,0 l/m 0 min 0 min 0 W/m 16,1 km/h (3 Bft) 97,83 %
22.11.2019 19:12 5,2 C 4,4 C 3,9 C 93 % 1004,7 hPa 0,0 l/m 0 min 0 min 0 W/m 19,3 km/h (3 Bft) 95,74 %
22.11.2019 19:14 5,2 C 4,4 C 3,9 C 93 % 1004,7 hPa 0,0 l/m 0 min 0 min 0 W/m 19,3 km/h (3 Bft) 93,62 %
22.11.2019 19:16 5,2 C 4,4 C 3,9 C 93 % 1004,7 hPa 0,0 l/m 0 min 0 min 0 W/m 19,3 km/h (3 Bft) 97,87 %
22.11.2019 19:18 5,1 C 4,4 C 3,9 C 93 % 1004,6 hPa 0,0 l/m 0 min 0 min 0 W/m 25,7 km/h (4 Bft) 97,87 %
22.11.2019 19:20 5,1 C 4,4 C 3,9 C 93 % 1004,6 hPa 0,0 l/m 0 min 0 min 0 W/m 29,0 km/h (5 Bft) 97,83 %
22.11.2019 19:22 5,1 C 4,4 C 3,9 C 93 % 1004,6 hPa 0,0 l/m 0 min 0 min 0 W/m 25,7 km/h (4 Bft) 97,87 %
22.11.2019 19:24 5,1 C 4,4 C 3,9 C 93 % 1004,6 hPa 0,0 l/m 0 min 0 min 0 W/m 16,1 km/h (3 Bft) 95,74 %
22.11.2019 19:26 5,1 C 4,4 C 3,3 C 93 % 1004,6 hPa 0,0 l/m 0 min 0 min 0 W/m 19,3 km/h (3 Bft) 97,87 %
22.11.2019 19:28 5,1 C 4,4 C 3,3 C 93 % 1004,6 hPa 0,0 l/m 0 min 0 min 0 W/m 22,5 km/h (4 Bft) 100,00 %
22.11.2019 19:30 5,0 C 4,4 C 3,3 C 93 % 1004,6 hPa 0,0 l/m 0 min 0 min 0 W/m 29,0 km/h (5 Bft) 100,00 %
22.11.2019 19:32 5,0 C 4,4 C 3,3 C 93 % 1004,5 hPa 0,0 l/m 0 min 0 min 0 W/m 19,3 km/h (3 Bft) 100,00 %
22.11.2019 19:34 5,0 C 4,4 C 3,3 C 93 % 1004,5 hPa 0,0 l/m 0 min 0 min 0 W/m 25,7 km/h (4 Bft) 100,00 %
22.11.2019 19:36 4,9 C 4,4 C 3,3 C 93 % 1004,5 hPa 0,0 l/m 0 min 0 min 0 W/m 25,7 km/h (4 Bft) 100,00 %
22.11.2019 19:38 4,9 C 4,4 C 3,3 C 93 % 1004,5 hPa 0,0 l/m 0 min 0 min 0 W/m 22,5 km/h (4 Bft) 95,74 %
22.11.2019 19:40 4,9 C 4,4 C 3,3 C 93 % 1004,5 hPa 0,0 l/m 0 min 0 min 0 W/m 25,7 km/h (4 Bft) 97,87 %
22.11.2019 19:42 4,9 C 4,4 C 3,3 C 93 % 1004,6 hPa 0,0 l/m 0 min 0 min 0 W/m 19,3 km/h (3 Bft) 97,87 %
22.11.2019 19:44 4,9 C 4,4 C 3,3 C 93 % 1004,6 hPa 0,0 l/m 0 min 0 min 0 W/m 22,5 km/h (4 Bft) 100,00 %
22.11.2019 19:46 4,9 C 4,4 C 3,3 C 94 % 1004,5 hPa 0,0 l/m 0 min 0 min 0 W/m 16,1 km/h (3 Bft) 100,00 %
22.11.2019 19:48 4,9 C 4,4 C 3,9 C 94 % 1004,5 hPa 0,0 l/m 0 min 0 min 0 W/m 35,4 km/h (5 Bft) 100,00 %
22.11.2019 19:50 4,9 C 4,4 C 3,9 C 94 % 1004,4 hPa 0,0 l/m 0 min 0 min 0 W/m 29,0 km/h (5 Bft) 97,87 %
22.11.2019 19:52 4,9 C 4,4 C 3,9 C 94 % 1004,4 hPa 0,0 l/m 0 min 0 min 0 W/m 32,2 km/h (5 Bft) 100,00 %
22.11.2019 19:54 4,9 C 4,4 C 3,9 C 94 % 1004,4 hPa 0,0 l/m 0 min 0 min 0 W/m 25,7 km/h (4 Bft) 100,00 %
22.11.2019 19:56 4,9 C 4,4 C 3,9 C 94 % 1004,4 hPa 0,0 l/m 0 min 0 min 0 W/m 35,4 km/h (5 Bft) 100,00 %
22.11.2019 19:58 4,9 C 4,4 C 3,3 C 94 % 1004,4 hPa 0,0 l/m 0 min 0 min 0 W/m 29,0 km/h (5 Bft) 97,87 %
22.11.2019 20:00 4,9 C 4,4 C 3,3 C 94 % 1004,3 hPa 0,0 l/m 0 min 0 min 0 W/m 25,7 km/h (4 Bft) 100,00 %
22.11.2019 20:02 4,9 C 4,4 C 3,3 C 94 % 1004,3 hPa 0,0 l/m 0 min 0 min 0 W/m 29,0 km/h (5 Bft) 100,00 %
22.11.2019 20:04 4,9 C 4,4 C 3,3 C 94 % 1004,2 hPa 0,0 l/m 0 min 0 min 0 W/m 22,5 km/h (4 Bft) 97,87 %
22.11.2019 20:06 4,8 C 4,4 C 3,3 C 94 % 1004,3 hPa 0,0 l/m 0 min 0 min 0 W/m 35,4 km/h (5 Bft) 97,87 %
22.11.2019 20:08 4,8 C 3,9 C 3,3 C 94 % 1004,2 hPa 0,0 l/m 0 min 0 min 0 W/m 32,2 km/h (5 Bft) 100,00 %
22.11.2019 20:10 4,8 C 3,9 C 3,3 C 94 % 1004,1 hPa 0,0 l/m 0 min 0 min 0 W/m 41,8 km/h (6 Bft) 97,87 %
22.11.2019 20:12 4,8 C 3,9 C 3,3 C 94 % 1004,2 hPa 0,0 l/m 0 min 0 min 0 W/m 25,7 km/h (4 Bft) 100,00 %
22.11.2019 20:14 4,8 C 3,9 C 3,3 C 94 % 1004,2 hPa 0,0 l/m 0 min 0 min 0 W/m 25,7 km/h (4 Bft) 100,00 %
22.11.2019 20:16 4,8 C 3,9 C 3,3 C 94 % 1004,1 hPa 0,0 l/m 0 min 0 min 0 W/m 32,2 km/h (5 Bft) 100,00 %
22.11.2019 20:18 4,8 C 3,9 C 3,3 C 94 % 1004,1 hPa 0,0 l/m 0 min 0 min 0 W/m 35,4 km/h (5 Bft) 100,00 %
22.11.2019 20:20 4,8 C 3,9 C 3,3 C 94 % 1004,1 hPa 0,0 l/m 0 min 0 min 0 W/m 25,7 km/h (4 Bft) 97,83 %
22.11.2019 20:22 4,7 C 3,9 C 3,3 C 94 % 1004,1 hPa 0,0 l/m 0 min 0 min 0 W/m 25,7 km/h (4 Bft) 100,00 %
22.11.2019 20:24 4,7 C 3,9 C 3,3 C 94 % 1004,0 hPa 0,0 l/m 0 min 0 min 0 W/m 25,7 km/h (4 Bft) 97,87 %
22.11.2019 20:26 4,7 C 3,9 C 3,3 C 94 % 1004,1 hPa 0,0 l/m 0 min 0 min 0 W/m 29,0 km/h (5 Bft) 100,00 %
22.11.2019 20:28 4,7 C 3,9 C 3,3 C 94 % 1004,0 hPa 0,0 l/m 0 min 0 min 0 W/m 29,0 km/h (5 Bft) 97,87 %
22.11.2019 20:30 4,7 C 3,9 C 3,3 C 94 % 1004,0 hPa 0,0 l/m 0 min 0 min 0 W/m 19,3 km/h (3 Bft) 100,00 %
22.11.2019 20:32 4,7 C 3,9 C 3,3 C 94 % 1003,9 hPa 0,0 l/m 0 min 0 min 0 W/m 22,5 km/h (4 Bft) 100,00 %
22.11.2019 20:34 4,7 C 3,9 C 3,3 C 94 % 1003,8 hPa 0,0 l/m 0 min 0 min 0 W/m 25,7 km/h (4 Bft) 100,00 %
22.11.2019 20:36 4,7 C 3,9 C 3,3 C 94 % 1003,8 hPa 0,0 l/m 0 min 0 min 0 W/m 48,3 km/h (6 Bft) 100,00 %
22.11.2019 20:38 4,7 C 3,9 C 3,3 C 94 % 1003,8 hPa 0,0 l/m 0 min 0 min 0 W/m 25,7 km/h (4 Bft) 100,00 %
22.11.2019 20:40 4,7 C 3,9 C 3,3 C 94 % 1003,8 hPa 0,0 l/m 0 min 0 min 0 W/m 22,5 km/h (4 Bft) 100,00 %
22.11.2019 20:42 4,7 C 3,9 C 3,3 C 94 % 1003,8 hPa 0,0 l/m 0 min 0 min 0 W/m 22,5 km/h (4 Bft) 97,83 %
22.11.2019 20:44 4,7 C 3,9 C 3,3 C 94 % 1003,8 hPa 0,0 l/m 0 min 0 min 0 W/m 19,3 km/h (3 Bft) 97,87 %
22.11.2019 20:46 4,7 C 3,9 C 3,3 C 94 % 1003,8 hPa 0,0 l/m 0 min 0 min 0 W/m 19,3 km/h (3 Bft) 100,00 %
22.11.2019 20:48 4,6 C 3,9 C 3,3 C 94 % 1003,8 hPa 0,0 l/m 0 min 0 min 0 W/m 19,3 km/h (3 Bft) 97,87 %
22.11.2019 20:50 4,6 C 3,9 C 3,3 C 94 % 1003,8 hPa 0,0 l/m 0 min 0 min 0 W/m 16,1 km/h (3 Bft) 97,87 %
22.11.2019 20:52 4,6 C 3,9 C 3,3 C 94 % 1003,8 hPa 0,0 l/m 0 min 0 min 0 W/m 22,5 km/h (4 Bft) 97,87 %
22.11.2019 20:54 4,6 C 3,9 C 3,3 C 94 % 1003,8 hPa 0,0 l/m 0 min 0 min 0 W/m 19,3 km/h (3 Bft) 97,83 %
22.11.2019 20:56 4,6 C 3,9 C 3,3 C 94 % 1003,9 hPa 0,0 l/m 0 min 0 min 0 W/m 22,5 km/h (4 Bft) 93,62 %
22.11.2019 20:58 4,6 C 3,9 C 3,3 C 94 % 1003,8 hPa 0,0 l/m 0 min 0 min 0 W/m 25,7 km/h (4 Bft) 95,74 %
22.11.2019 21:00 4,6 C 3,9 C 3,3 C 94 % 1003,8 hPa 0,0 l/m 0 min 0 min 0 W/m 16,1 km/h (3 Bft) 97,87 %
22.11.2019 21:02 4,6 C 3,9 C 3,3 C 94 % 1003,7 hPa 0,0 l/m 0 min 0 min 0 W/m 12,9 km/h (3 Bft) 97,87 %
22.11.2019 21:04 4,5 C 3,9 C 3,3 C 94 % 1003,7 hPa 0,0 l/m 0 min 0 min 0 W/m 19,3 km/h (3 Bft) 97,87 %
22.11.2019 21:06 4,5 C 3,9 C 3,3 C 94 % 1003,7 hPa 0,0 l/m 0 min 0 min 0 W/m 12,9 km/h (3 Bft) 95,65 %
22.11.2019 21:08 4,5 C 3,9 C 3,3 C 94 % 1003,7 hPa 0,0 l/m 0 min 0 min 0 W/m 25,7 km/h (4 Bft) 95,74 %
22.11.2019 21:10 4,5 C 3,9 C 3,3 C 94 % 1003,6 hPa 0,0 l/m 0 min 0 min 0 W/m 29,0 km/h (5 Bft) 97,87 %
22.11.2019 21:12 4,5 C 3,9 C 3,3 C 94 % 1003,7 hPa 0,0 l/m 0 min 0 min 0 W/m 25,7 km/h (4 Bft) 97,87 %
22.11.2019 21:14 4,5 C 3,9 C 3,3 C 94 % 1003,7 hPa 0,0 l/m 0 min 0 min 0 W/m 29,0 km/h (5 Bft) 93,62 %
22.11.2019 21:16 4,5 C 3,9 C 3,3 C 94 % 1003,7 hPa 0,0 l/m 0 min 0 min 0 W/m 19,3 km/h (3 Bft) 95,74 %
22.11.2019 21:18 4,5 C 3,9 C 3,3 C 94 % 1003,6 hPa 0,0 l/m 0 min 0 min 0 W/m 25,7 km/h (4 Bft) 97,83 %
22.11.2019 21:20 4,5 C 3,9 C 3,3 C 94 % 1003,6 hPa 0,0 l/m 0 min 0 min 0 W/m 19,3 km/h (3 Bft) 97,87 %
22.11.2019 21:22 4,5 C 3,9 C 3,3 C 94 % 1003,6 hPa 0,0 l/m 0 min 0 min 0 W/m 16,1 km/h (3 Bft) 95,74 %
22.11.2019 21:24 4,4 C 3,9 C 3,3 C 94 % 1003,5 hPa 0,0 l/m 0 min 0 min 0 W/m 25,7 km/h (4 Bft) 93,62 %
22.11.2019 21:26 4,4 C 3,9 C 3,3 C 94 % 1003,5 hPa 0,0 l/m 0 min 0 min 0 W/m 19,3 km/h (3 Bft) 95,74 %
22.11.2019 21:28 4,4 C 3,9 C 3,3 C 94 % 1003,5 hPa 0,0 l/m 0 min 0 min 0 W/m 29,0 km/h (5 Bft) 97,87 %
22.11.2019 21:30 4,5 C 3,9 C 3,3 C 94 % 1003,6 hPa 0,0 l/m 0 min 0 min 0 W/m 19,3 km/h (3 Bft) 95,65 %
22.11.2019 21:32 4,5 C 3,9 C 3,3 C 94 % 1003,6 hPa 0,0 l/m 0 min 0 min 0 W/m 19,3 km/h (3 Bft) 93,62 %
22.11.2019 21:34 4,5 C 3,9 C 3,3 C 94 % 1003,6 hPa 0,0 l/m 0 min 0 min 0 W/m 25,7 km/h (4 Bft) 93,62 %
22.11.2019 21:36 4,5 C 3,9 C 3,3 C 94 % 1003,5 hPa 0,0 l/m 0 min 0 min 0 W/m 38,6 km/h (5 Bft) 93,62 %
22.11.2019 21:38 4,5 C 3,9 C 3,3 C 94 % 1003,5 hPa 0,0 l/m 0 min 0 min 0 W/m 19,3 km/h (3 Bft) 95,74 %
22.11.2019 21:40 4,5 C 3,9 C 3,3 C 94 % 1003,5 hPa 0,0 l/m 0 min 0 min 0 W/m 19,3 km/h (3 Bft) 91,30 %
22.11.2019 21:42 4,5 C 3,9 C 3,3 C 94 % 1003,5 hPa 0,0 l/m 0 min 0 min 0 W/m 19,3 km/h (3 Bft) 91,49 %
22.11.2019 21:44 4,5 C 3,9 C 3,3 C 94 % 1003,5 hPa 0,0 l/m 0 min 0 min 0 W/m 19,3 km/h (3 Bft) 95,74 %
22.11.2019 21:46 4,5 C 3,9 C 3,3 C 94 % 1003,5 hPa 0,0 l/m 0 min 0 min 0 W/m 29,0 km/h (5 Bft) 95,74 %
22.11.2019 21:48 4,5 C 3,9 C 3,3 C 94 % 1003,5 hPa 0,0 l/m 0 min 0 min 0 W/m 25,7 km/h (4 Bft) 95,74 %
22.11.2019 21:50 4,5 C 3,9 C 3,3 C 94 % 1003,5 hPa 0,0 l/m 0 min 0 min 0 W/m 25,7 km/h (4 Bft) 93,62 %
22.11.2019 21:52 4,5 C 3,9 C 3,3 C 94 % 1003,4 hPa 0,0 l/m 0 min 0 min 0 W/m 22,5 km/h (4 Bft) 95,74 %
22.11.2019 21:54 4,5 C 3,9 C 3,3 C 94 % 1003,4 hPa 0,0 l/m 0 min 0 min 0 W/m 25,7 km/h (4 Bft) 95,65 %
22.11.2019 21:56 4,5 C 3,9 C 3,3 C 94 % 1003,4 hPa 0,0 l/m 0 min 0 min 0 W/m 19,3 km/h (3 Bft) 95,74 %
22.11.2019 21:58 4,5 C 3,9 C 3,3 C 94 % 1003,4 hPa 0,0 l/m 0 min 0 min 0 W/m 22,5 km/h (4 Bft) 95,74 %
22.11.2019 22:00 4,5 C 3,9 C 3,3 C 94 % 1003,4 hPa 0,0 l/m 0 min 0 min 0 W/m 22,5 km/h (4 Bft) 95,74 %
22.11.2019 22:02 4,5 C 3,9 C 3,3 C 94 % 1003,3 hPa 0,0 l/m 0 min 0 min 0 W/m 19,3 km/h (3 Bft) 97,87 %
22.11.2019 22:04 4,5 C 3,9 C 3,3 C 94 % 1003,3 hPa 0,0 l/m 0 min 0 min 0 W/m 19,3 km/h (3 Bft) 95,65 %
22.11.2019 22:06 4,5 C 3,9 C 3,3 C 94 % 1003,3 hPa 0,0 l/m 0 min 0 min 0 W/m 35,4 km/h (5 Bft) 95,74 %
22.11.2019 22:08 4,4 C 3,9 C 3,3 C 94 % 1003,3 hPa 0,0 l/m 0 min 0 min 0 W/m 29,0 km/h (5 Bft) 95,74 %
22.11.2019 22:10 4,5 C 3,9 C 3,3 C 94 % 1003,4 hPa 0,0 l/m 0 min 0 min 0 W/m 22,5 km/h (4 Bft) 93,62 %
22.11.2019 22:12 4,4 C 3,9 C 3,3 C 94 % 1003,4 hPa 0,0 l/m 0 min 0 min 0 W/m 12,9 km/h (3 Bft) 95,74 %
22.11.2019 22:14 4,4 C 3,9 C 2,8 C 94 % 1003,4 hPa 0,0 l/m 0 min 0 min 0 W/m 19,3 km/h (3 Bft) 95,74 %
22.11.2019 22:16 4,4 C 3,9 C 2,8 C 94 % 1003,3 hPa 0,0 l/m 0 min 0 min 0 W/m 22,5 km/h (4 Bft) 95,65 %
22.11.2019 22:18 4,4 C 3,9 C 2,8 C 94 % 1003,3 hPa 0,0 l/m 0 min 0 min 0 W/m 19,3 km/h (3 Bft) 95,74 %
22.11.2019 22:20 4,4 C 3,9 C 2,8 C 94 % 1003,3 hPa 0,0 l/m 0 min 0 min 0 W/m 16,1 km/h (3 Bft) 97,87 %
22.11.2019 22:22 4,4 C 3,9 C 2,8 C 94 % 1003,3 hPa 0,0 l/m 0 min 0 min 0 W/m 25,7 km/h (4 Bft) 97,87 %
22.11.2019 22:24 4,4 C 3,3 C 2,8 C 94 % 1003,3 hPa 0,0 l/m 0 min 0 min 0 W/m 12,9 km/h (3 Bft) 97,87 %
22.11.2019 22:26 4,4 C 3,3 C 2,8 C 94 % 1003,2 hPa 0,0 l/m 0 min 0 min 0 W/m 6,4 km/h (2 Bft) 97,87 %
22.11.2019 22:28 4,3 C 3,3 C 2,8 C 94 % 1003,3 hPa 0,0 l/m 0 min 0 min 0 W/m 12,9 km/h (3 Bft) 97,83 %
22.11.2019 22:30 4,3 C 3,3 C 2,8 C 94 % 1003,1 hPa 0,0 l/m 0 min 0 min 0 W/m 12,9 km/h (3 Bft) 97,87 %
22.11.2019 22:32 4,3 C 3,3 C 2,8 C 94 % 1003,1 hPa 0,0 l/m 0 min 0 min 0 W/m 16,1 km/h (3 Bft) 100,00 %
22.11.2019 22:34 4,3 C 3,3 C 2,8 C 94 % 1003,0 hPa 0,0 l/m 0 min 0 min 0 W/m 16,1 km/h (3 Bft) 95,74 %
22.11.2019 22:36 4,3 C 3,9 C 2,8 C 94 % 1003,0 hPa 0,0 l/m 0 min 0 min 0 W/m 12,9 km/h (3 Bft) 97,92 %
22.11.2019 22:38 4,3 C 3,9 C 2,8 C 94 % 1003,0 hPa 0,0 l/m 0 min 0 min 0 W/m 12,9 km/h (3 Bft) 97,87 %
22.11.2019 22:40 4,3 C 3,9 C 2,8 C 94 % 1002,9 hPa 0,0 l/m 0 min 0 min 0 W/m 16,1 km/h (3 Bft) 97,92 %
22.11.2019 22:42 4,3 C 3,9 C 2,8 C 94 % 1002,8 hPa 0,0 l/m 0 min 0 min 0 W/m 12,9 km/h (3 Bft) 100,00 %
22.11.2019 22:44 4,3 C 3,3 C 2,8 C 94 % 1002,8 hPa 0,0 l/m 0 min 0 min 0 W/m 3,2 km/h (1 Bft) 100,00 %
22.11.2019 22:46 4,3 C 3,3 C 2,8 C 94 % 1002,7 hPa 0,0 l/m 0 min 0 min 0 W/m 0,0 km/h (0 Bft) 100,00 %
22.11.2019 22:48 4,3 C 3,3 C 2,8 C 94 % 1002,6 hPa 0,0 l/m 0 min 0 min 0 W/m 12,9 km/h (3 Bft) 97,87 %
22.11.2019 22:50 4,3 C 3,3 C 2,8 C 94 % 1002,6 hPa 0,0 l/m 0 min 0 min 0 W/m 16,1 km/h (3 Bft) 100,00 %
22.11.2019 22:52 4,3 C 3,3 C 2,8 C 94 % 1002,6 hPa 0,0 l/m 0 min 0 min 0 W/m 12,9 km/h (3 Bft) 100,00 %
22.11.2019 22:54 4,3 C 3,9 C 2,8 C 94 % 1002,5 hPa 0,0 l/m 0 min 0 min 0 W/m 19,3 km/h (3 Bft) 100,00 %
22.11.2019 22:56 4,3 C 3,9 C 2,8 C 94 % 1002,5 hPa 0,0 l/m 0 min 0 min 0 W/m 12,9 km/h (3 Bft) 97,87 %
22.11.2019 22:58 4,3 C 3,9 C 2,8 C 94 % 1002,6 hPa 0,0 l/m 0 min 0 min 0 W/m 19,3 km/h (3 Bft) 100,00 %
22.11.2019 23:00 4,3 C 3,9 C 3,3 C 94 % 1002,5 hPa 0,0 l/m 0 min 0 min 0 W/m 35,4 km/h (5 Bft) 74,47 %
22.11.2019 23:02 4,3 C 3,9 C 2,8 C 94 % 1002,4 hPa 0,0 l/m 0 min 0 min 0 W/m 6,4 km/h (2 Bft) 83,33 %
22.11.2019 23:04 4,3 C 3,3 C 2,8 C 94 % 1002,4 hPa 0,0 l/m 0 min 0 min 0 W/m 3,2 km/h (1 Bft) 97,87 %
22.11.2019 23:06 4,3 C 3,3 C 2,8 C 94 % 1002,3 hPa 0,0 l/m 0 min 0 min 0 W/m 6,4 km/h (2 Bft) 100,00 %
22.11.2019 23:08 4,3 C 3,3 C 2,8 C 94 % 1002,4 hPa 0,0 l/m 0 min 0 min 0 W/m 6,4 km/h (2 Bft) 100,00 %
22.11.2019 23:10 4,3 C 3,3 C 2,8 C 94 % 1002,3 hPa 0,0 l/m 0 min 0 min 0 W/m 3,2 km/h (1 Bft) 100,00 %
22.11.2019 23:12 4,2 C 3,3 C 2,8 C 94 % 1002,3 hPa 0,0 l/m 0 min 0 min 0 W/m 0,0 km/h (0 Bft) 95,74 %
22.11.2019 23:14 4,2 C 3,3 C 2,8 C 94 % 1002,3 hPa 0,0 l/m 0 min 0 min 0 W/m 6,4 km/h (2 Bft) 100,00 %
22.11.2019 23:16 4,2 C 3,3 C 2,8 C 94 % 1002,4 hPa 0,0 l/m 0 min 0 min 0 W/m 12,9 km/h (3 Bft) 97,87 %
22.11.2019 23:18 4,2 C 3,3 C 2,8 C 94 % 1002,4 hPa 0,0 l/m 0 min 0 min 0 W/m 12,9 km/h (3 Bft) 100,00 %
22.11.2019 23:20 4,2 C 3,3 C 2,8 C 94 % 1002,5 hPa 0,0 l/m 0 min 0 min 0 W/m 12,9 km/h (3 Bft) 97,83 %
22.11.2019 23:22 4,2 C 3,3 C 2,8 C 94 % 1002,6 hPa 0,0 l/m 0 min 0 min 0 W/m 12,9 km/h (3 Bft) 100,00 %
22.11.2019 23:24 4,2 C 3,9 C 2,8 C 94 % 1002,7 hPa 0,0 l/m 0 min 0 min 0 W/m 16,1 km/h (3 Bft) 100,00 %
22.11.2019 23:26 4,2 C 3,9 C 2,8 C 94 % 1002,7 hPa 0,0 l/m 0 min 0 min 0 W/m 16,1 km/h (3 Bft) 100,00 %
22.11.2019 23:28 4,2 C 3,9 C 2,8 C 94 % 1002,6 hPa 0,0 l/m 0 min 0 min 0 W/m 16,1 km/h (3 Bft) 100,00 %
22.11.2019 23:30 4,2 C 3,3 C 2,8 C 94 % 1002,6 hPa 0,0 l/m 0 min 0 min 0 W/m 16,1 km/h (3 Bft) 97,87 %
22.11.2019 23:32 4,2 C 3,3 C 2,8 C 94 % 1002,6 hPa 0,0 l/m 0 min 0 min 0 W/m 12,9 km/h (3 Bft) 97,87 %
22.11.2019 23:34 4,2 C 3,3 C 2,8 C 94 % 1002,6 hPa 0,0 l/m 0 min 0 min 0 W/m 12,9 km/h (3 Bft) 97,87 %
22.11.2019 23:36 4,2 C 3,3 C 2,8 C 94 % 1002,6 hPa 0,0 l/m 0 min 0 min 0 W/m 12,9 km/h (3 Bft) 97,87 %
22.11.2019 23:38 4,2 C 3,3 C 2,8 C 94 % 1002,5 hPa 0,0 l/m 0 min 0 min 0 W/m 3,2 km/h (1 Bft) 97,87 %
22.11.2019 23:40 4,2 C 3,3 C 2,8 C 94 % 1002,5 hPa 0,0 l/m 0 min 0 min 0 W/m 12,9 km/h (3 Bft) 95,74 %
22.11.2019 23:42 4,2 C 3,3 C 2,8 C 94 % 1002,5 hPa 0,0 l/m 0 min 0 min 0 W/m 6,4 km/h (2 Bft) 97,83 %
22.11.2019 23:44 4,2 C 3,3 C 2,8 C 94 % 1002,5 hPa 0,0 l/m 0 min 0 min 0 W/m 3,2 km/h (1 Bft) 97,87 %
22.11.2019 23:46 4,2 C 3,3 C 2,8 C 94 % 1002,5 hPa 0,0 l/m 0 min 0 min 0 W/m 12,9 km/h (3 Bft) 97,87 %
22.11.2019 23:48 4,2 C 3,3 C 2,8 C 94 % 1002,4 hPa 0,0 l/m 0 min 0 min 0 W/m 12,9 km/h (3 Bft) 97,87 %
22.11.2019 23:50 4,2 C 3,3 C 2,8 C 94 % 1002,4 hPa 0,0 l/m 0 min 0 min 0 W/m 6,4 km/h (2 Bft) 97,87 %
22.11.2019 23:52 4,2 C 3,9 C 2,8 C 94 % 1002,2 hPa 0,0 l/m 0 min 0 min 0 W/m 6,4 km/h (2 Bft) 97,87 %
22.11.2019 23:54 4,2 C 3,9 C 2,8 C 94 % 1002,2 hPa 0,0 l/m 0 min 0 min 0 W/m 12,9 km/h (3 Bft) 97,83 %
22.11.2019 23:56 4,2 C 3,3 C 2,8 C 94 % 1002,2 hPa 0,0 l/m 0 min 0 min 0 W/m 16,1 km/h (3 Bft) 97,87 %
22.11.2019 23:58 4,2 C 3,9 C 2,8 C 94 % 1002,2 hPa 0,0 l/m 0 min 0 min 0 W/m 16,1 km/h (3 Bft) 95,74 %
_ Min-Zeit 02:18 01:58 00:52 13:10 23:52 - - - - 22:46 03:36
Minimum _ 4,2 C 3,3 C 2,8 C 87 % 1002,2 hPa - - - - 0,0 km/h (0 Bft) 53,33 %
_ Max-Zeit 12:48 12:24 12:14 09:00 09:32 05:44 12:08 04:36 12:08 20:36 00:00
Maximum _ 9,3 C 12,2 C 7,8 C 98 % 1007,2 hPa 0,2 l/m 4 min 2 min 343 W/m 48,3 km/h
O-SO (6 Bft)
100,00 %
Durchschnitt _ 5,9 C 5,6 C 4,5 C 94 % 1005,6 hPa #1,4 l/m #4:30 h #1:44 h 137 W/m 20,7 km/h (4 Bft) 97,25 %
© 2019 W. Hausmann